Wetterdaten: Samstag, 03.09.2022
Datum Zeit Temp. Aussen Temp. o. S. Temp +5cm Feuchte Auss Luftdruck Regen Sonnenschein Regendauer Solar Windben Empfang
03.09.2022 00:00 17,4 C 16,1 C 12,8 C 66 % 1012,2 hPa 0,0 l/m 0 min 0 min 0 W/m 0,0 km/h (0 Bft) 97,87 %
03.09.2022 00:02 17,4 C 16,1 C 12,8 C 66 % 1012,1 hPa 0,0 l/m 0 min 0 min 0 W/m 0,0 km/h (0 Bft) 100,00 %
03.09.2022 00:04 17,3 C 16,1 C 12,8 C 66 % 1012,2 hPa 0,0 l/m 0 min 0 min 0 W/m 0,0 km/h (0 Bft) 91,49 %
03.09.2022 00:08 17,2 C 16,1 C 12,8 C 66 % 1012,1 hPa 0,0 l/m 0 min 0 min 0 W/m 0,0 km/h (0 Bft) 97,94 %
03.09.2022 00:10 17,2 C 16,1 C 12,8 C 66 % 1012,1 hPa 0,0 l/m 0 min 0 min 0 W/m 0,0 km/h (0 Bft) 93,62 %
03.09.2022 00:12 17,2 C 16,1 C 12,8 C 66 % 1012,1 hPa 0,0 l/m 0 min 0 min 0 W/m 0,0 km/h (0 Bft) 95,74 %
03.09.2022 00:14 17,1 C 16,1 C 12,8 C 67 % 1012,1 hPa 0,0 l/m 0 min 0 min 0 W/m 3,2 km/h (1 Bft) 95,65 %
03.09.2022 00:16 17,1 C 16,1 C 12,8 C 66 % 1012,1 hPa 0,0 l/m 0 min 0 min 0 W/m 0,0 km/h (0 Bft) 97,87 %
03.09.2022 00:18 17,1 C 15,6 C 12,8 C 67 % 1012,1 hPa 0,0 l/m 0 min 0 min 0 W/m 0,0 km/h (0 Bft) 95,74 %
03.09.2022 00:20 17,0 C 15,6 C 12,2 C 67 % 1012,0 hPa 0,0 l/m 0 min 0 min 0 W/m 3,2 km/h (1 Bft) 95,74 %
03.09.2022 00:22 16,9 C 15,6 C 12,2 C 67 % 1012,0 hPa 0,0 l/m 0 min 0 min 0 W/m 0,0 km/h (0 Bft) 97,87 %
03.09.2022 00:24 16,9 C 15,6 C 12,8 C 66 % 1012,0 hPa 0,0 l/m 0 min 0 min 0 W/m 3,2 km/h (1 Bft) 97,83 %
03.09.2022 00:26 16,9 C 15,6 C 12,8 C 67 % 1012,0 hPa 0,0 l/m 0 min 0 min 0 W/m 3,2 km/h (1 Bft) 93,62 %
03.09.2022 00:28 16,9 C 15,6 C 12,8 C 66 % 1012,0 hPa 0,0 l/m 0 min 0 min 0 W/m 0,0 km/h (0 Bft) 95,74 %
03.09.2022 00:30 16,8 C 15,6 C 12,2 C 65 % 1012,0 hPa 0,0 l/m 0 min 0 min 0 W/m 0,0 km/h (0 Bft) 95,74 %
03.09.2022 00:32 16,8 C 16,1 C 12,2 C 66 % 1012,0 hPa 0,0 l/m 0 min 0 min 0 W/m 0,0 km/h (0 Bft) 97,87 %
03.09.2022 00:34 16,8 C 15,6 C 12,8 C 66 % 1012,0 hPa 0,0 l/m 0 min 0 min 0 W/m 0,0 km/h (0 Bft) 95,74 %
03.09.2022 00:36 16,8 C 15,6 C 12,2 C 67 % 1012,0 hPa 0,0 l/m 0 min 0 min 0 W/m 0,0 km/h (0 Bft) 100,00 %
03.09.2022 00:38 16,8 C 15,6 C 12,2 C 67 % 1012,0 hPa 0,0 l/m 0 min 0 min 0 W/m 3,2 km/h (1 Bft) 97,87 %
03.09.2022 00:40 16,8 C 15,6 C 12,2 C 68 % 1012,0 hPa 0,0 l/m 0 min 0 min 0 W/m 0,0 km/h (0 Bft) 97,87 %
03.09.2022 00:42 16,7 C 15,6 C 12,2 C 68 % 1012,0 hPa 0,0 l/m 0 min 0 min 0 W/m 0,0 km/h (0 Bft) 97,87 %
03.09.2022 00:44 16,7 C 15,6 C 12,2 C 68 % 1012,0 hPa 0,0 l/m 0 min 0 min 0 W/m 0,0 km/h (0 Bft) 97,87 %
03.09.2022 00:46 16,7 C 15,6 C 12,2 C 68 % 1012,0 hPa 0,0 l/m 0 min 0 min 0 W/m 0,0 km/h (0 Bft) 95,74 %
03.09.2022 00:48 16,7 C 15,6 C 12,2 C 67 % 1012,0 hPa 0,0 l/m 0 min 0 min 0 W/m 0,0 km/h (0 Bft) 97,83 %
03.09.2022 00:50 16,6 C 15,6 C 12,2 C 68 % 1012,0 hPa 0,0 l/m 0 min 0 min 0 W/m 3,2 km/h (1 Bft) 95,74 %
03.09.2022 00:52 16,6 C 15,6 C 12,2 C 67 % 1012,0 hPa 0,0 l/m 0 min 0 min 0 W/m 0,0 km/h (0 Bft) 95,74 %
03.09.2022 00:54 16,6 C 15,6 C 12,2 C 67 % 1012,0 hPa 0,0 l/m 0 min 0 min 0 W/m 0,0 km/h (0 Bft) 95,74 %
03.09.2022 00:56 16,6 C 15,6 C 12,2 C 67 % 1012,0 hPa 0,0 l/m 0 min 0 min 0 W/m 0,0 km/h (0 Bft) 95,74 %
03.09.2022 00:58 16,6 C 15,6 C 12,2 C 67 % 1012,0 hPa 0,0 l/m 0 min 0 min 0 W/m 0,0 km/h (0 Bft) 95,74 %
03.09.2022 01:00 16,5 C 15,6 C 12,2 C 67 % 1012,0 hPa 0,0 l/m 0 min 0 min 0 W/m 0,0 km/h (0 Bft) 97,83 %
03.09.2022 01:02 16,5 C 15,6 C 12,2 C 67 % 1012,0 hPa 0,0 l/m 0 min 0 min 0 W/m 0,0 km/h (0 Bft) 95,74 %
03.09.2022 01:04 16,4 C 15,6 C 12,2 C 68 % 1012,0 hPa 0,0 l/m 0 min 0 min 0 W/m 0,0 km/h (0 Bft) 97,87 %
03.09.2022 01:06 16,4 C 15,6 C 12,2 C 68 % 1012,0 hPa 0,0 l/m 0 min 0 min 0 W/m 0,0 km/h (0 Bft) 97,87 %
03.09.2022 01:08 16,4 C 15,0 C 12,2 C 68 % 1012,0 hPa 0,0 l/m 0 min 0 min 0 W/m 0,0 km/h (0 Bft) 93,62 %
03.09.2022 01:10 16,4 C 15,0 C 11,7 C 68 % 1012,0 hPa 0,0 l/m 0 min 0 min 0 W/m 0,0 km/h (0 Bft) 97,87 %
03.09.2022 01:12 16,3 C 15,0 C 12,2 C 68 % 1012,0 hPa 0,0 l/m 0 min 0 min 0 W/m 0,0 km/h (0 Bft) 95,65 %
03.09.2022 01:14 16,3 C 15,0 C 11,7 C 69 % 1012,0 hPa 0,0 l/m 0 min 0 min 0 W/m 0,0 km/h (0 Bft) 97,87 %
03.09.2022 01:16 16,3 C 15,0 C 11,7 C 69 % 1012,0 hPa 0,0 l/m 0 min 0 min 0 W/m 0,0 km/h (0 Bft) 97,87 %
03.09.2022 01:18 16,3 C 15,0 C 11,7 C 69 % 1012,0 hPa 0,0 l/m 0 min 0 min 0 W/m 0,0 km/h (0 Bft) 97,87 %
03.09.2022 01:20 16,2 C 15,0 C 11,7 C 69 % 1012,0 hPa 0,0 l/m 0 min 0 min 0 W/m 3,2 km/h (1 Bft) 97,87 %
03.09.2022 01:22 16,2 C 15,0 C 11,7 C 69 % 1012,0 hPa 0,0 l/m 0 min 0 min 0 W/m 0,0 km/h (0 Bft) 95,74 %
03.09.2022 01:24 16,2 C 15,0 C 11,7 C 68 % 1012,0 hPa 0,0 l/m 0 min 0 min 0 W/m 0,0 km/h (0 Bft) 97,83 %
03.09.2022 01:26 16,1 C 15,0 C 11,7 C 69 % 1012,0 hPa 0,0 l/m 0 min 0 min 0 W/m 0,0 km/h (0 Bft) 93,62 %
03.09.2022 01:28 16,1 C 15,0 C 11,7 C 69 % 1012,0 hPa 0,0 l/m 0 min 0 min 0 W/m 3,2 km/h (1 Bft) 97,87 %
03.09.2022 01:30 16,1 C 15,0 C 11,7 C 68 % 1012,0 hPa 0,0 l/m 0 min 0 min 0 W/m 3,2 km/h (1 Bft) 93,62 %
03.09.2022 01:32 16,0 C 15,0 C 11,7 C 68 % 1012,0 hPa 0,0 l/m 0 min 0 min 0 W/m 3,2 km/h (1 Bft) 95,74 %
03.09.2022 01:34 16,0 C 15,0 C 11,7 C 68 % 1012,0 hPa 0,0 l/m 0 min 0 min 0 W/m 0,0 km/h (0 Bft) 95,74 %
03.09.2022 01:36 16,0 C 15,0 C 12,2 C 68 % 1011,9 hPa 0,0 l/m 0 min 0 min 0 W/m 3,2 km/h (1 Bft) 95,65 %
03.09.2022 01:38 16,0 C 15,6 C 12,2 C 68 % 1011,9 hPa 0,0 l/m 0 min 0 min 0 W/m 3,2 km/h (1 Bft) 95,74 %
03.09.2022 01:40 16,0 C 15,0 C 12,2 C 68 % 1011,9 hPa 0,0 l/m 0 min 0 min 0 W/m 3,2 km/h (1 Bft) 93,62 %
03.09.2022 01:42 16,0 C 15,6 C 12,2 C 68 % 1011,9 hPa 0,0 l/m 0 min 0 min 0 W/m 3,2 km/h (1 Bft) 93,62 %
03.09.2022 01:44 16,0 C 15,6 C 12,2 C 68 % 1011,9 hPa 0,0 l/m 0 min 0 min 0 W/m 3,2 km/h (1 Bft) 95,74 %
03.09.2022 01:46 16,0 C 15,0 C 11,7 C 68 % 1011,8 hPa 0,0 l/m 0 min 0 min 0 W/m 3,2 km/h (1 Bft) 93,62 %
03.09.2022 01:48 16,0 C 15,0 C 11,7 C 68 % 1011,9 hPa 0,0 l/m 0 min 0 min 0 W/m 3,2 km/h (1 Bft) 95,65 %
03.09.2022 01:50 16,0 C 15,0 C 12,2 C 68 % 1011,8 hPa 0,0 l/m 0 min 0 min 0 W/m 3,2 km/h (1 Bft) 95,74 %
03.09.2022 01:52 16,0 C 15,6 C 12,2 C 67 % 1011,8 hPa 0,0 l/m 0 min 0 min 0 W/m 3,2 km/h (1 Bft) 95,74 %
03.09.2022 01:54 16,0 C 15,6 C 12,2 C 66 % 1011,8 hPa 0,0 l/m 0 min 0 min 0 W/m 3,2 km/h (1 Bft) 95,74 %
03.09.2022 01:56 16,1 C 15,6 C 12,2 C 66 % 1011,8 hPa 0,0 l/m 0 min 0 min 0 W/m 3,2 km/h (1 Bft) 97,87 %
03.09.2022 01:58 16,1 C 15,6 C 12,2 C 66 % 1011,8 hPa 0,0 l/m 0 min 0 min 0 W/m 3,2 km/h (1 Bft) 97,87 %
03.09.2022 02:00 16,1 C 15,6 C 12,8 C 66 % 1011,9 hPa 0,0 l/m 0 min 0 min 0 W/m 3,2 km/h (1 Bft) 100,00 %
03.09.2022 02:02 16,2 C 16,1 C 12,8 C 65 % 1011,8 hPa 0,0 l/m 0 min 0 min 0 W/m 3,2 km/h (1 Bft) 100,00 %
03.09.2022 02:04 16,3 C 16,1 C 12,8 C 65 % 1011,8 hPa 0,0 l/m 0 min 0 min 0 W/m 12,9 km/h (3 Bft) 100,00 %
03.09.2022 02:06 16,4 C 16,1 C 12,8 C 64 % 1011,8 hPa 0,0 l/m 0 min 0 min 0 W/m 6,4 km/h (2 Bft) 97,87 %
03.09.2022 02:08 16,4 C 16,1 C 13,3 C 64 % 1011,8 hPa 0,0 l/m 0 min 0 min 0 W/m 6,4 km/h (2 Bft) 100,00 %
03.09.2022 02:10 16,6 C 16,7 C 13,3 C 63 % 1011,8 hPa 0,0 l/m 0 min 0 min 0 W/m 9,7 km/h (2 Bft) 95,74 %
03.09.2022 02:12 16,7 C 16,7 C 13,3 C 63 % 1011,8 hPa 0,0 l/m 0 min 0 min 0 W/m 6,4 km/h (2 Bft) 100,00 %
03.09.2022 02:14 16,7 C 16,7 C 13,3 C 63 % 1011,8 hPa 0,0 l/m 0 min 0 min 0 W/m 3,2 km/h (1 Bft) 97,87 %
03.09.2022 02:16 16,8 C 16,7 C 13,3 C 63 % 1011,8 hPa 0,0 l/m 0 min 0 min 0 W/m 6,4 km/h (2 Bft) 100,00 %
03.09.2022 02:18 16,9 C 16,7 C 13,3 C 62 % 1011,8 hPa 0,0 l/m 0 min 0 min 0 W/m 6,4 km/h (2 Bft) 100,00 %
03.09.2022 02:20 17,0 C 16,7 C 13,3 C 62 % 1011,7 hPa 0,0 l/m 0 min 0 min 0 W/m 3,2 km/h (1 Bft) 100,00 %
03.09.2022 02:22 17,1 C 16,7 C 13,3 C 62 % 1011,8 hPa 0,0 l/m 0 min 0 min 0 W/m 6,4 km/h (2 Bft) 97,87 %
03.09.2022 02:24 17,1 C 16,7 C 13,3 C 61 % 1011,8 hPa 0,0 l/m 0 min 0 min 0 W/m 3,2 km/h (1 Bft) 97,83 %
03.09.2022 02:26 17,2 C 16,7 C 13,3 C 62 % 1011,8 hPa 0,0 l/m 0 min 0 min 0 W/m 6,4 km/h (2 Bft) 100,00 %
03.09.2022 02:28 17,2 C 16,7 C 13,3 C 61 % 1011,7 hPa 0,0 l/m 0 min 0 min 0 W/m 6,4 km/h (2 Bft) 100,00 %
03.09.2022 02:30 17,3 C 16,7 C 13,3 C 61 % 1011,8 hPa 0,0 l/m 0 min 0 min 0 W/m 6,4 km/h (2 Bft) 95,74 %
03.09.2022 02:32 17,3 C 16,7 C 13,3 C 61 % 1011,8 hPa 0,0 l/m 0 min 0 min 0 W/m 6,4 km/h (2 Bft) 93,62 %
03.09.2022 02:34 17,4 C 16,7 C 13,3 C 61 % 1011,8 hPa 0,0 l/m 0 min 0 min 0 W/m 6,4 km/h (2 Bft) 95,74 %
03.09.2022 02:36 17,4 C 16,7 C 13,3 C 60 % 1011,7 hPa 0,0 l/m 0 min 0 min 0 W/m 9,7 km/h (2 Bft) 97,87 %
03.09.2022 02:38 17,4 C 16,7 C 13,3 C 60 % 1011,8 hPa 0,0 l/m 0 min 0 min 0 W/m 6,4 km/h (2 Bft) 97,83 %
03.09.2022 02:40 17,4 C 16,7 C 13,3 C 60 % 1011,8 hPa 0,0 l/m 0 min 0 min 0 W/m 6,4 km/h (2 Bft) 97,87 %
03.09.2022 02:42 17,5 C 16,7 C 13,3 C 60 % 1011,8 hPa 0,0 l/m 0 min 0 min 0 W/m 6,4 km/h (2 Bft) 97,87 %
03.09.2022 02:44 17,6 C 16,7 C 13,3 C 60 % 1011,8 hPa 0,0 l/m 0 min 0 min 0 W/m 6,4 km/h (2 Bft) 93,62 %
03.09.2022 02:46 17,6 C 16,7 C 13,9 C 60 % 1011,8 hPa 0,0 l/m 0 min 0 min 0 W/m 6,4 km/h (2 Bft) 95,74 %
03.09.2022 02:48 17,6 C 16,7 C 13,9 C 60 % 1011,8 hPa 0,0 l/m 0 min 0 min 0 W/m 3,2 km/h (1 Bft) 97,83 %
03.09.2022 02:50 17,6 C 16,7 C 13,3 C 60 % 1011,8 hPa 0,0 l/m 0 min 0 min 0 W/m 6,4 km/h (2 Bft) 97,87 %
03.09.2022 02:52 17,6 C 16,7 C 13,3 C 60 % 1011,8 hPa 0,0 l/m 0 min 0 min 0 W/m 3,2 km/h (1 Bft) 97,92 %
03.09.2022 02:54 17,6 C 16,7 C 13,3 C 60 % 1011,8 hPa 0,0 l/m 0 min 0 min 0 W/m 6,4 km/h (2 Bft) 97,87 %
03.09.2022 02:56 17,6 C 16,7 C 13,3 C 60 % 1011,8 hPa 0,0 l/m 0 min 0 min 0 W/m 6,4 km/h (2 Bft) 97,87 %
03.09.2022 02:58 17,6 C 16,7 C 13,3 C 60 % 1011,8 hPa 0,0 l/m 0 min 0 min 0 W/m 6,4 km/h (2 Bft) 97,87 %
03.09.2022 03:00 17,6 C 16,7 C 13,3 C 60 % 1011,8 hPa 0,0 l/m 0 min 0 min 0 W/m 6,4 km/h (2 Bft) 97,83 %
03.09.2022 03:02 17,6 C 16,7 C 13,3 C 60 % 1011,9 hPa 0,0 l/m 0 min 0 min 0 W/m 6,4 km/h (2 Bft) 97,87 %
03.09.2022 03:04 17,6 C 16,7 C 13,3 C 60 % 1011,8 hPa 0,0 l/m 0 min 0 min 0 W/m 6,4 km/h (2 Bft) 95,74 %
03.09.2022 03:06 17,6 C 16,7 C 13,3 C 59 % 1011,8 hPa 0,0 l/m 0 min 0 min 0 W/m 3,2 km/h (1 Bft) 95,92 %
03.09.2022 03:08 17,7 C 16,7 C 13,3 C 60 % 1011,8 hPa 0,0 l/m 0 min 0 min 0 W/m 6,4 km/h (2 Bft) 97,87 %
03.09.2022 03:10 17,7 C 16,7 C 13,3 C 60 % 1011,8 hPa 0,0 l/m 0 min 0 min 0 W/m 3,2 km/h (1 Bft) 97,87 %
03.09.2022 03:12 17,7 C 16,7 C 13,3 C 60 % 1011,8 hPa 0,0 l/m 0 min 0 min 0 W/m 3,2 km/h (1 Bft) 93,48 %
03.09.2022 03:14 17,7 C 16,7 C 13,3 C 60 % 1011,7 hPa 0,0 l/m 0 min 0 min 0 W/m 6,4 km/h (2 Bft) 93,62 %
03.09.2022 03:16 17,6 C 16,7 C 13,3 C 60 % 1011,7 hPa 0,0 l/m 0 min 0 min 0 W/m 6,4 km/h (2 Bft) 95,74 %
03.09.2022 03:18 17,6 C 16,7 C 13,3 C 60 % 1011,6 hPa 0,0 l/m 0 min 0 min 0 W/m 3,2 km/h (1 Bft) 97,87 %
03.09.2022 03:20 17,6 C 16,7 C 13,3 C 60 % 1011,7 hPa 0,0 l/m 0 min 0 min 0 W/m 3,2 km/h (1 Bft) 97,87 %
03.09.2022 03:22 17,6 C 16,7 C 13,3 C 60 % 1011,7 hPa 0,0 l/m 0 min 0 min 0 W/m 6,4 km/h (2 Bft) 97,87 %
03.09.2022 03:24 17,6 C 16,7 C 13,3 C 60 % 1011,7 hPa 0,0 l/m 0 min 0 min 0 W/m 6,4 km/h (2 Bft) 95,65 %
03.09.2022 03:26 17,6 C 16,7 C 13,3 C 60 % 1011,8 hPa 0,0 l/m 0 min 0 min 0 W/m 3,2 km/h (1 Bft) 97,87 %
03.09.2022 03:28 17,6 C 16,7 C 13,3 C 60 % 1011,7 hPa 0,0 l/m 0 min 0 min 0 W/m 6,4 km/h (2 Bft) 97,87 %
03.09.2022 03:30 17,6 C 16,7 C 13,3 C 60 % 1011,7 hPa 0,0 l/m 0 min 0 min 0 W/m 3,2 km/h (1 Bft) 97,87 %
03.09.2022 03:32 17,6 C 16,7 C 13,3 C 60 % 1011,7 hPa 0,0 l/m 0 min 0 min 0 W/m 3,2 km/h (1 Bft) 97,87 %
03.09.2022 03:34 17,5 C 16,7 C 13,3 C 60 % 1011,7 hPa 0,0 l/m 0 min 0 min 0 W/m 3,2 km/h (1 Bft) 97,87 %
03.09.2022 03:36 17,5 C 16,7 C 13,3 C 61 % 1011,7 hPa 0,0 l/m 0 min 0 min 0 W/m 3,2 km/h (1 Bft) 97,83 %
03.09.2022 03:38 17,5 C 16,7 C 13,3 C 60 % 1011,8 hPa 0,0 l/m 0 min 0 min 0 W/m 3,2 km/h (1 Bft) 97,87 %
03.09.2022 03:40 17,4 C 16,7 C 13,3 C 61 % 1011,7 hPa 0,0 l/m 0 min 0 min 0 W/m 3,2 km/h (1 Bft) 95,74 %
03.09.2022 03:42 17,4 C 16,7 C 13,3 C 61 % 1011,7 hPa 0,0 l/m 0 min 0 min 0 W/m 6,4 km/h (2 Bft) 97,87 %
03.09.2022 03:44 17,4 C 16,7 C 13,3 C 61 % 1011,7 hPa 0,0 l/m 0 min 0 min 0 W/m 6,4 km/h (2 Bft) 97,87 %
03.09.2022 03:46 17,4 C 16,1 C 13,3 C 61 % 1011,7 hPa 0,0 l/m 0 min 0 min 0 W/m 3,2 km/h (1 Bft) 97,87 %
03.09.2022 03:48 17,4 C 16,1 C 13,3 C 61 % 1011,6 hPa 0,0 l/m 0 min 0 min 0 W/m 6,4 km/h (2 Bft) 100,00 %
03.09.2022 03:50 17,3 C 16,1 C 13,3 C 61 % 1011,7 hPa 0,0 l/m 0 min 0 min 0 W/m 3,2 km/h (1 Bft) 100,00 %
03.09.2022 03:52 17,3 C 16,1 C 13,3 C 61 % 1011,7 hPa 0,0 l/m 0 min 0 min 0 W/m 3,2 km/h (1 Bft) 97,87 %
03.09.2022 03:54 17,3 C 16,1 C 13,3 C 61 % 1011,6 hPa 0,0 l/m 0 min 0 min 0 W/m 6,4 km/h (2 Bft) 100,00 %
03.09.2022 03:56 17,3 C 16,7 C 13,3 C 61 % 1011,7 hPa 0,0 l/m 0 min 0 min 0 W/m 3,2 km/h (1 Bft) 100,00 %
03.09.2022 03:58 17,3 C 16,7 C 13,3 C 61 % 1011,7 hPa 0,0 l/m 0 min 0 min 0 W/m 3,2 km/h (1 Bft) 100,00 %
03.09.2022 04:00 17,3 C 16,1 C 13,3 C 61 % 1011,7 hPa 0,0 l/m 0 min 0 min 0 W/m 6,4 km/h (2 Bft) 100,00 %
03.09.2022 04:02 17,3 C 16,1 C 13,3 C 61 % 1011,7 hPa 0,0 l/m 0 min 0 min 0 W/m 6,4 km/h (2 Bft) 100,00 %
03.09.2022 04:04 17,3 C 16,7 C 13,3 C 61 % 1011,8 hPa 0,0 l/m 0 min 0 min 0 W/m 3,2 km/h (1 Bft) 95,74 %
03.09.2022 04:06 17,3 C 16,7 C 13,3 C 61 % 1011,7 hPa 0,0 l/m 0 min 0 min 0 W/m 6,4 km/h (2 Bft) 97,87 %
03.09.2022 04:08 17,3 C 16,1 C 12,8 C 61 % 1011,8 hPa 0,0 l/m 0 min 0 min 0 W/m 12,9 km/h (3 Bft) 97,87 %
03.09.2022 04:10 17,3 C 16,7 C 12,8 C 61 % 1011,8 hPa 0,0 l/m 0 min 0 min 0 W/m 6,4 km/h (2 Bft) 95,65 %
03.09.2022 04:12 17,3 C 16,7 C 13,3 C 61 % 1011,8 hPa 0,0 l/m 0 min 0 min 0 W/m 6,4 km/h (2 Bft) 97,87 %
03.09.2022 04:14 17,3 C 16,7 C 13,3 C 61 % 1011,8 hPa 0,0 l/m 0 min 0 min 0 W/m 6,4 km/h (2 Bft) 97,87 %
03.09.2022 04:16 17,3 C 16,7 C 12,8 C 61 % 1011,7 hPa 0,0 l/m 0 min 0 min 0 W/m 6,4 km/h (2 Bft) 97,87 %
03.09.2022 04:18 17,3 C 16,7 C 12,8 C 62 % 1011,8 hPa 0,0 l/m 0 min 0 min 0 W/m 6,4 km/h (2 Bft) 95,74 %
03.09.2022 04:20 17,3 C 16,7 C 12,8 C 61 % 1011,8 hPa 0,0 l/m 0 min 0 min 0 W/m 6,4 km/h (2 Bft) 97,87 %
03.09.2022 04:22 17,3 C 16,7 C 12,8 C 61 % 1011,8 hPa 0,0 l/m 0 min 0 min 0 W/m 6,4 km/h (2 Bft) 97,83 %
03.09.2022 04:24 17,3 C 16,7 C 12,8 C 61 % 1011,7 hPa 0,0 l/m 0 min 0 min 0 W/m 6,4 km/h (2 Bft) 97,87 %
03.09.2022 04:26 17,3 C 16,1 C 12,8 C 61 % 1011,7 hPa 0,0 l/m 0 min 0 min 0 W/m 6,4 km/h (2 Bft) 97,87 %
03.09.2022 04:28 17,3 C 16,1 C 12,8 C 62 % 1011,7 hPa 0,0 l/m 0 min 0 min 0 W/m 6,4 km/h (2 Bft) 97,87 %
03.09.2022 04:30 17,3 C 16,1 C 12,8 C 61 % 1011,7 hPa 0,0 l/m 0 min 0 min 0 W/m 3,2 km/h (1 Bft) 97,87 %
03.09.2022 04:32 17,2 C 16,1 C 12,8 C 62 % 1011,7 hPa 0,0 l/m 0 min 0 min 0 W/m 3,2 km/h (1 Bft) 97,87 %
03.09.2022 04:34 17,2 C 16,1 C 12,8 C 62 % 1011,7 hPa 0,0 l/m 0 min 0 min 0 W/m 6,4 km/h (2 Bft) 95,74 %
03.09.2022 04:36 17,2 C 16,1 C 12,8 C 62 % 1011,7 hPa 0,0 l/m 0 min 0 min 0 W/m 6,4 km/h (2 Bft) 97,83 %
03.09.2022 04:38 17,2 C 16,1 C 12,8 C 62 % 1011,6 hPa 0,0 l/m 0 min 0 min 0 W/m 6,4 km/h (2 Bft) 97,87 %
03.09.2022 04:40 17,2 C 16,1 C 12,8 C 62 % 1011,6 hPa 0,0 l/m 0 min 0 min 0 W/m 3,2 km/h (1 Bft) 97,87 %
03.09.2022 04:42 17,1 C 16,1 C 12,8 C 62 % 1011,6 hPa 0,0 l/m 0 min 0 min 0 W/m 6,4 km/h (2 Bft) 97,87 %
03.09.2022 04:44 17,1 C 16,1 C 12,8 C 62 % 1011,7 hPa 0,0 l/m 0 min 0 min 0 W/m 3,2 km/h (1 Bft) 97,87 %
03.09.2022 04:46 17,1 C 16,1 C 12,8 C 62 % 1011,6 hPa 0,0 l/m 0 min 0 min 0 W/m 3,2 km/h (1 Bft) 97,87 %
03.09.2022 04:48 17,1 C 16,1 C 12,8 C 62 % 1011,7 hPa 0,0 l/m 0 min 0 min 0 W/m 3,2 km/h (1 Bft) 97,83 %
03.09.2022 04:50 17,1 C 16,1 C 12,8 C 62 % 1011,7 hPa 0,0 l/m 0 min 0 min 0 W/m 3,2 km/h (1 Bft) 95,74 %
03.09.2022 04:52 17,0 C 15,6 C 12,8 C 62 % 1011,6 hPa 0,0 l/m 0 min 0 min 0 W/m 3,2 km/h (1 Bft) 95,74 %
03.09.2022 04:54 17,0 C 15,6 C 12,8 C 62 % 1011,7 hPa 0,0 l/m 0 min 0 min 0 W/m 3,2 km/h (1 Bft) 97,87 %
03.09.2022 04:56 16,9 C 15,6 C 12,8 C 63 % 1011,6 hPa 0,0 l/m 0 min 0 min 0 W/m 3,2 km/h (1 Bft) 100,00 %
03.09.2022 04:58 16,9 C 15,6 C 12,2 C 63 % 1011,6 hPa 0,0 l/m 0 min 0 min 0 W/m 3,2 km/h (1 Bft) 95,65 %
03.09.2022 05:00 16,9 C 15,6 C 12,2 C 63 % 1011,6 hPa 0,0 l/m 0 min 0 min 0 W/m 3,2 km/h (1 Bft) 100,00 %
03.09.2022 05:02 16,8 C 15,6 C 12,8 C 63 % 1011,6 hPa 0,0 l/m 0 min 0 min 0 W/m 3,2 km/h (1 Bft) 100,00 %
03.09.2022 05:04 16,8 C 15,6 C 12,8 C 63 % 1011,7 hPa 0,0 l/m 0 min 0 min 0 W/m 3,2 km/h (1 Bft) 100,00 %
03.09.2022 05:06 16,8 C 15,6 C 12,8 C 64 % 1011,6 hPa 0,0 l/m 0 min 0 min 0 W/m 3,2 km/h (1 Bft) 97,87 %
03.09.2022 05:08 16,7 C 15,6 C 12,8 C 64 % 1011,6 hPa 0,0 l/m 0 min 0 min 0 W/m 3,2 km/h (1 Bft) 95,74 %
03.09.2022 05:10 16,7 C 15,6 C 12,2 C 64 % 1011,6 hPa 0,0 l/m 0 min 0 min 0 W/m 3,2 km/h (1 Bft) 95,65 %
03.09.2022 05:12 16,7 C 15,6 C 12,2 C 63 % 1011,6 hPa 0,0 l/m 0 min 0 min 0 W/m 3,2 km/h (1 Bft) 97,87 %
03.09.2022 05:14 16,7 C 15,6 C 12,2 C 63 % 1011,6 hPa 0,0 l/m 0 min 0 min 0 W/m 3,2 km/h (1 Bft) 95,74 %
03.09.2022 05:16 16,6 C 15,6 C 12,2 C 64 % 1011,6 hPa 0,0 l/m 0 min 0 min 0 W/m 3,2 km/h (1 Bft) 95,74 %
03.09.2022 05:18 16,6 C 15,6 C 12,2 C 64 % 1011,6 hPa 0,0 l/m 0 min 0 min 0 W/m 3,2 km/h (1 Bft) 95,74 %
03.09.2022 05:20 16,6 C 15,6 C 12,2 C 64 % 1011,5 hPa 0,0 l/m 0 min 0 min 0 W/m 3,2 km/h (1 Bft) 95,74 %
03.09.2022 05:22 16,6 C 15,6 C 12,2 C 64 % 1011,6 hPa 0,0 l/m 0 min 0 min 0 W/m 3,2 km/h (1 Bft) 95,65 %
03.09.2022 05:24 16,5 C 15,6 C 12,2 C 64 % 1011,6 hPa 0,0 l/m 0 min 0 min 0 W/m 3,2 km/h (1 Bft) 91,49 %
03.09.2022 05:26 16,5 C 15,6 C 12,2 C 64 % 1011,5 hPa 0,0 l/m 0 min 0 min 0 W/m 6,4 km/h (2 Bft) 95,74 %
03.09.2022 05:28 16,4 C 15,6 C 12,2 C 64 % 1011,5 hPa 0,0 l/m 0 min 0 min 0 W/m 3,2 km/h (1 Bft) 93,62 %
03.09.2022 05:30 16,4 C 15,6 C 12,2 C 64 % 1011,5 hPa 0,0 l/m 0 min 0 min 0 W/m 3,2 km/h (1 Bft) 95,74 %
03.09.2022 05:32 16,4 C 15,6 C 12,2 C 64 % 1011,5 hPa 0,0 l/m 0 min 0 min 0 W/m 3,2 km/h (1 Bft) 95,74 %
03.09.2022 05:34 16,4 C 15,6 C 12,2 C 65 % 1011,5 hPa 0,0 l/m 0 min 0 min 0 W/m 3,2 km/h (1 Bft) 95,65 %
03.09.2022 05:36 16,3 C 15,6 C 12,2 C 64 % 1011,5 hPa 0,0 l/m 0 min 0 min 0 W/m 3,2 km/h (1 Bft) 97,87 %
03.09.2022 05:38 16,3 C 15,6 C 12,2 C 65 % 1011,5 hPa 0,0 l/m 0 min 0 min 0 W/m 3,2 km/h (1 Bft) 97,87 %
03.09.2022 05:40 16,3 C 15,6 C 12,2 C 65 % 1011,5 hPa 0,0 l/m 0 min 0 min 0 W/m 3,2 km/h (1 Bft) 93,62 %
03.09.2022 05:42 16,3 C 15,6 C 12,2 C 65 % 1011,5 hPa 0,0 l/m 0 min 0 min 0 W/m 3,2 km/h (1 Bft) 97,87 %
03.09.2022 05:44 16,3 C 15,6 C 12,2 C 65 % 1011,5 hPa 0,0 l/m 0 min 0 min 0 W/m 3,2 km/h (1 Bft) 97,87 %
03.09.2022 05:46 16,3 C 15,6 C 12,2 C 65 % 1011,5 hPa 0,0 l/m 0 min 0 min 0 W/m 3,2 km/h (1 Bft) 97,83 %
03.09.2022 05:48 16,3 C 15,6 C 12,2 C 65 % 1011,5 hPa 0,0 l/m 0 min 0 min 0 W/m 3,2 km/h (1 Bft) 97,87 %
03.09.2022 05:50 16,3 C 15,0 C 12,2 C 65 % 1011,5 hPa 0,0 l/m 0 min 0 min 0 W/m 3,2 km/h (1 Bft) 97,87 %
03.09.2022 05:52 16,3 C 15,0 C 12,2 C 65 % 1011,4 hPa 0,0 l/m 0 min 0 min 0 W/m 3,2 km/h (1 Bft) 97,87 %
03.09.2022 05:54 16,2 C 15,0 C 11,7 C 65 % 1011,4 hPa 0,0 l/m 0 min 0 min 0 W/m 3,2 km/h (1 Bft) 97,87 %
03.09.2022 05:56 16,2 C 15,0 C 11,7 C 65 % 1011,5 hPa 0,0 l/m 0 min 0 min 0 W/m 3,2 km/h (1 Bft) 95,74 %
03.09.2022 05:58 16,2 C 15,0 C 11,7 C 66 % 1011,5 hPa 0,0 l/m 0 min 0 min 0 W/m 3,2 km/h (1 Bft) 97,83 %
03.09.2022 06:00 16,2 C 14,4 C 11,7 C 65 % 1011,5 hPa 0,0 l/m 0 min 0 min 0 W/m 3,2 km/h (1 Bft) 100,00 %
03.09.2022 06:02 16,1 C 14,4 C 11,7 C 66 % 1011,5 hPa 0,0 l/m 0 min 0 min 0 W/m 3,2 km/h (1 Bft) 100,00 %
03.09.2022 06:04 16,1 C 14,4 C 11,1 C 66 % 1011,5 hPa 0,0 l/m 0 min 0 min 0 W/m 3,2 km/h (1 Bft) 100,00 %
03.09.2022 06:08 16,0 C 14,4 C 11,1 C 66 % 1011,5 hPa 0,0 l/m 0 min 0 min 0 W/m 3,2 km/h (1 Bft) 100,00 %
03.09.2022 06:10 15,9 C 14,4 C 11,1 C 67 % 1011,4 hPa 0,0 l/m 0 min 0 min 0 W/m 3,2 km/h (1 Bft) 100,00 %
03.09.2022 06:12 15,9 C 14,4 C 11,1 C 67 % 1011,5 hPa 0,0 l/m 0 min 0 min 0 W/m 0,0 km/h (0 Bft) 97,83 %
03.09.2022 06:14 15,8 C 14,4 C 11,1 C 67 % 1011,4 hPa 0,0 l/m 0 min 0 min 0 W/m 0,0 km/h (0 Bft) 100,00 %
03.09.2022 06:16 15,8 C 13,9 C 11,1 C 68 % 1011,5 hPa 0,0 l/m 0 min 0 min 0 W/m 0,0 km/h (0 Bft) 100,00 %
03.09.2022 06:18 15,8 C 13,9 C 11,1 C 68 % 1011,4 hPa 0,0 l/m 0 min 0 min 0 W/m 3,2 km/h (1 Bft) 100,00 %
03.09.2022 06:20 15,7 C 13,9 C 11,1 C 68 % 1011,4 hPa 0,0 l/m 0 min 0 min 0 W/m 0,0 km/h (0 Bft) 100,00 %
03.09.2022 06:22 15,7 C 13,9 C 11,1 C 69 % 1011,5 hPa 0,0 l/m 0 min 0 min 0 W/m 3,2 km/h (1 Bft) 100,00 %
03.09.2022 06:24 15,6 C 13,9 C 10,6 C 68 % 1011,4 hPa 0,0 l/m 0 min 0 min 0 W/m 3,2 km/h (1 Bft) 100,00 %
03.09.2022 06:26 15,6 C 13,9 C 10,6 C 68 % 1011,4 hPa 0,0 l/m 0 min 0 min 0 W/m 0,0 km/h (0 Bft) 100,00 %
03.09.2022 06:28 15,5 C 13,9 C 10,6 C 69 % 1011,4 hPa 0,0 l/m 0 min 0 min 0 W/m 3,2 km/h (1 Bft) 100,00 %
03.09.2022 06:30 15,4 C 13,9 C 10,6 C 69 % 1011,4 hPa 0,0 l/m 0 min 0 min 0 W/m 0,0 km/h (0 Bft) 100,00 %
03.09.2022 06:32 15,3 C 13,9 C 10,6 C 69 % 1011,4 hPa 0,0 l/m 0 min 0 min 0 W/m 0,0 km/h (0 Bft) 100,00 %
03.09.2022 06:34 15,3 C 13,9 C 10,6 C 70 % 1011,4 hPa 0,0 l/m 0 min 0 min 0 W/m 0,0 km/h (0 Bft) 100,00 %
03.09.2022 06:36 15,3 C 13,3 C 10,6 C 70 % 1011,3 hPa 0,0 l/m 0 min 0 min 0 W/m 0,0 km/h (0 Bft) 100,00 %
03.09.2022 06:38 15,2 C 13,3 C 10,6 C 70 % 1011,3 hPa 0,0 l/m 0 min 0 min 0 W/m 0,0 km/h (0 Bft) 100,00 %
03.09.2022 06:40 15,1 C 13,3 C 10,6 C 70 % 1011,4 hPa 0,0 l/m 0 min 0 min 0 W/m 0,0 km/h (0 Bft) 100,00 %
03.09.2022 06:42 15,1 C 13,3 C 10,6 C 70 % 1011,3 hPa 0,0 l/m 0 min 0 min 0 W/m 0,0 km/h (0 Bft) 100,00 %
03.09.2022 06:44 15,1 C 13,3 C 10,6 C 71 % 1011,3 hPa 0,0 l/m 0 min 0 min 0 W/m 0,0 km/h (0 Bft) 100,00 %
03.09.2022 06:46 15,0 C 13,3 C 10,6 C 71 % 1011,4 hPa 0,0 l/m 0 min 0 min 0 W/m 0,0 km/h (0 Bft) 100,00 %
03.09.2022 06:48 14,9 C 13,3 C 10,6 C 71 % 1011,4 hPa 0,0 l/m 0 min 0 min 0 W/m 0,0 km/h (0 Bft) 100,00 %
03.09.2022 06:50 14,9 C 13,3 C 10,6 C 71 % 1011,4 hPa 0,0 l/m 0 min 0 min 0 W/m 3,2 km/h (1 Bft) 95,74 %
03.09.2022 06:52 14,8 C 13,3 C 10,6 C 71 % 1011,4 hPa 0,0 l/m 0 min 0 min 2 W/m 0,0 km/h (0 Bft) 97,87 %
03.09.2022 06:54 14,8 C 13,3 C 10,6 C 71 % 1011,4 hPa 0,0 l/m 0 min 0 min 5 W/m 0,0 km/h (0 Bft) 95,74 %
03.09.2022 06:56 14,8 C 13,3 C 10,6 C 72 % 1011,4 hPa 0,0 l/m 0 min 0 min 5 W/m 0,0 km/h (0 Bft) 97,87 %
03.09.2022 06:58 14,7 C 13,3 C 10,6 C 72 % 1011,5 hPa 0,0 l/m 0 min 0 min 7 W/m 0,0 km/h (0 Bft) 97,87 %
03.09.2022 07:00 14,7 C 13,3 C 10,6 C 72 % 1011,5 hPa 0,0 l/m 0 min 0 min 7 W/m 0,0 km/h (0 Bft) 97,83 %
03.09.2022 07:02 14,6 C 13,3 C 10,6 C 72 % 1011,5 hPa 0,0 l/m 0 min 0 min 9 W/m 0,0 km/h (0 Bft) 97,87 %
03.09.2022 07:04 14,6 C 13,3 C 10,6 C 73 % 1011,5 hPa 0,0 l/m 0 min 0 min 9 W/m 0,0 km/h (0 Bft) 97,87 %
03.09.2022 07:06 14,6 C 13,3 C 10,6 C 73 % 1011,5 hPa 0,0 l/m 0 min 0 min 11 W/m 0,0 km/h (0 Bft) 97,87 %
03.09.2022 07:08 14,6 C 13,3 C 10,6 C 73 % 1011,5 hPa 0,0 l/m 0 min 0 min 11 W/m 0,0 km/h (0 Bft) 97,87 %
03.09.2022 07:10 14,6 C 13,3 C 10,6 C 73 % 1011,5 hPa 0,0 l/m 0 min 0 min 11 W/m 0,0 km/h (0 Bft) 97,87 %
03.09.2022 07:12 14,5 C 13,3 C 10,6 C 73 % 1011,4 hPa 0,0 l/m 0 min 0 min 12 W/m 0,0 km/h (0 Bft) 97,83 %
03.09.2022 07:14 14,5 C 13,3 C 10,6 C 73 % 1011,4 hPa 0,0 l/m 0 min 0 min 12 W/m 3,2 km/h (1 Bft) 97,87 %
03.09.2022 07:16 14,4 C 13,3 C 10,6 C 73 % 1011,4 hPa 0,0 l/m 0 min 0 min 13 W/m 3,2 km/h (1 Bft) 91,49 %
03.09.2022 07:18 14,4 C 13,3 C 10,6 C 73 % 1011,4 hPa 0,0 l/m 0 min 0 min 14 W/m 0,0 km/h (0 Bft) 95,74 %
03.09.2022 07:20 14,4 C 13,3 C 10,6 C 73 % 1011,4 hPa 0,0 l/m 0 min 0 min 14 W/m 0,0 km/h (0 Bft) 97,87 %
03.09.2022 07:22 14,4 C 13,3 C 10,6 C 74 % 1011,4 hPa 0,0 l/m 0 min 0 min 16 W/m 0,0 km/h (0 Bft) 98,21 %
03.09.2022 07:24 14,4 C 13,3 C 10,6 C 74 % 1011,4 hPa 0,0 l/m 0 min 0 min 16 W/m 0,0 km/h (0 Bft) 97,87 %
03.09.2022 07:26 14,4 C 13,9 C 10,6 C 74 % 1011,4 hPa 0,0 l/m 0 min 0 min 17 W/m 0,0 km/h (0 Bft) 93,62 %
03.09.2022 07:28 14,3 C 13,3 C 10,6 C 74 % 1011,4 hPa 0,0 l/m 0 min 0 min 18 W/m 0,0 km/h (0 Bft) 93,62 %
03.09.2022 07:30 14,3 C 13,9 C 10,6 C 74 % 1011,4 hPa 0,0 l/m 0 min 0 min 18 W/m 0,0 km/h (0 Bft) 95,74 %
03.09.2022 07:32 14,3 C 13,9 C 10,6 C 74 % 1011,4 hPa 0,0 l/m 0 min 0 min 19 W/m 3,2 km/h (1 Bft) 97,87 %
03.09.2022 07:34 14,3 C 13,9 C 10,6 C 74 % 1011,5 hPa 0,0 l/m 0 min 0 min 19 W/m 3,2 km/h (1 Bft) 97,83 %
03.09.2022 07:36 14,3 C 13,9 C 10,6 C 74 % 1011,5 hPa 0,0 l/m 0 min 0 min 20 W/m 0,0 km/h (0 Bft) 93,62 %
03.09.2022 07:38 14,3 C 13,9 C 10,6 C 75 % 1011,5 hPa 0,0 l/m 0 min 0 min 21 W/m 3,2 km/h (1 Bft) 97,87 %
03.09.2022 07:40 14,3 C 13,9 C 10,6 C 75 % 1011,5 hPa 0,0 l/m 0 min 0 min 21 W/m 0,0 km/h (0 Bft) 97,87 %
03.09.2022 07:42 14,3 C 13,9 C 10,6 C 75 % 1011,5 hPa 0,0 l/m 0 min 0 min 21 W/m 0,0 km/h (0 Bft) 95,74 %
03.09.2022 07:44 14,3 C 13,9 C 10,6 C 75 % 1011,4 hPa 0,0 l/m 0 min 0 min 23 W/m 3,2 km/h (1 Bft) 93,62 %
03.09.2022 07:46 14,3 C 13,9 C 10,6 C 75 % 1011,5 hPa 0,0 l/m 0 min 0 min 23 W/m 3,2 km/h (1 Bft) 93,48 %
03.09.2022 07:48 14,3 C 13,9 C 10,6 C 75 % 1011,5 hPa 0,0 l/m 0 min 0 min 24 W/m 3,2 km/h (1 Bft) 95,74 %
03.09.2022 07:50 14,4 C 13,9 C 10,6 C 75 % 1011,5 hPa 0,0 l/m 0 min 0 min 25 W/m 3,2 km/h (1 Bft) 93,62 %
03.09.2022 07:52 14,4 C 13,9 C 10,6 C 76 % 1011,5 hPa 0,0 l/m 0 min 0 min 25 W/m 3,2 km/h (1 Bft) 93,62 %
03.09.2022 07:54 14,4 C 14,4 C 11,1 C 76 % 1011,5 hPa 0,0 l/m 0 min 0 min 26 W/m 3,2 km/h (1 Bft) 95,74 %
03.09.2022 07:56 14,4 C 14,4 C 11,1 C 75 % 1011,5 hPa 0,0 l/m 0 min 0 min 26 W/m 3,2 km/h (1 Bft) 95,65 %
03.09.2022 07:58 14,5 C 14,4 C 11,1 C 76 % 1011,5 hPa 0,0 l/m 0 min 0 min 26 W/m 3,2 km/h (1 Bft) 95,74 %
03.09.2022 08:00 14,5 C 14,4 C 11,1 C 75 % 1011,5 hPa 0,0 l/m 0 min 0 min 28 W/m 3,2 km/h (1 Bft) 95,74 %
03.09.2022 08:02 14,6 C 14,4 C 11,1 C 75 % 1011,5 hPa 0,0 l/m 0 min 0 min 29 W/m 3,2 km/h (1 Bft) 93,62 %
03.09.2022 08:04 14,6 C 15,0 C 11,1 C 75 % 1011,5 hPa 0,0 l/m 0 min 0 min 30 W/m 6,4 km/h (2 Bft) 93,62 %
03.09.2022 08:06 14,7 C 15,0 C 11,7 C 74 % 1011,5 hPa 0,0 l/m 0 min 0 min 31 W/m 3,2 km/h (1 Bft) 91,49 %
03.09.2022 08:08 14,8 C 15,6 C 11,7 C 74 % 1011,5 hPa 0,0 l/m 0 min 0 min 32 W/m 6,4 km/h (2 Bft) 95,65 %
03.09.2022 08:10 15,0 C 15,6 C 12,2 C 73 % 1011,5 hPa 0,0 l/m 0 min 0 min 32 W/m 6,4 km/h (2 Bft) 95,74 %
03.09.2022 08:12 15,1 C 15,6 C 12,2 C 72 % 1011,5 hPa 0,0 l/m 0 min 0 min 32 W/m 6,4 km/h (2 Bft) 97,87 %
03.09.2022 08:14 15,3 C 16,1 C 12,2 C 72 % 1011,5 hPa 0,0 l/m 0 min 0 min 33 W/m 6,4 km/h (2 Bft) 95,74 %
03.09.2022 08:16 15,4 C 16,1 C 12,2 C 71 % 1011,6 hPa 0,0 l/m 0 min 0 min 35 W/m 6,4 km/h (2 Bft) 93,62 %
03.09.2022 08:18 15,6 C 16,1 C 12,8 C 71 % 1011,6 hPa 0,0 l/m 0 min 0 min 35 W/m 6,4 km/h (2 Bft) 97,87 %
03.09.2022 08:20 15,8 C 16,1 C 12,8 C 70 % 1011,6 hPa 0,0 l/m 0 min 0 min 35 W/m 12,9 km/h (3 Bft) 100,00 %
03.09.2022 08:22 15,9 C 16,1 C 12,8 C 69 % 1011,6 hPa 0,0 l/m 0 min 0 min 35 W/m 6,4 km/h (2 Bft) 100,00 %
03.09.2022 08:24 16,1 C 16,7 C 12,8 C 68 % 1011,6 hPa 0,0 l/m 0 min 0 min 35 W/m 9,7 km/h (2 Bft) 97,87 %
03.09.2022 08:26 16,3 C 16,7 C 12,8 C 68 % 1011,6 hPa 0,0 l/m 0 min 0 min 35 W/m 6,4 km/h (2 Bft) 100,00 %
03.09.2022 08:28 16,4 C 16,7 C 12,8 C 68 % 1011,6 hPa 0,0 l/m 0 min 0 min 35 W/m 6,4 km/h (2 Bft) 100,00 %
03.09.2022 08:30 16,6 C 16,7 C 12,8 C 67 % 1011,5 hPa 0,0 l/m 0 min 0 min 35 W/m 6,4 km/h (2 Bft) 100,00 %
03.09.2022 08:32 16,7 C 16,7 C 12,8 C 67 % 1011,5 hPa 0,0 l/m 0 min 0 min 37 W/m 6,4 km/h (2 Bft) 100,00 %
03.09.2022 08:34 16,8 C 16,7 C 12,8 C 67 % 1011,5 hPa 0,0 l/m 0 min 0 min 37 W/m 6,4 km/h (2 Bft) 95,74 %
03.09.2022 08:36 16,9 C 16,7 C 13,3 C 66 % 1011,5 hPa 0,0 l/m 0 min 0 min 37 W/m 6,4 km/h (2 Bft) 97,87 %
03.09.2022 08:38 16,9 C 16,7 C 13,3 C 66 % 1011,5 hPa 0,0 l/m 0 min 0 min 39 W/m 6,4 km/h (2 Bft) 97,87 %
03.09.2022 08:40 17,1 C 16,7 C 13,3 C 66 % 1011,5 hPa 0,0 l/m 0 min 0 min 39 W/m 6,4 km/h (2 Bft) 97,87 %
03.09.2022 08:42 17,1 C 17,2 C 13,3 C 66 % 1011,5 hPa 0,0 l/m 0 min 0 min 39 W/m 12,9 km/h (3 Bft) 97,87 %
03.09.2022 08:44 17,2 C 17,2 C 13,3 C 65 % 1011,6 hPa 0,0 l/m 0 min 0 min 40 W/m 6,4 km/h (2 Bft) 97,83 %
03.09.2022 08:46 17,2 C 17,2 C 13,3 C 65 % 1011,5 hPa 0,0 l/m 0 min 0 min 40 W/m 12,9 km/h (3 Bft) 97,87 %
03.09.2022 08:48 17,3 C 17,2 C 13,3 C 65 % 1011,6 hPa 0,0 l/m 0 min 0 min 41 W/m 6,4 km/h (2 Bft) 95,74 %
03.09.2022 08:50 17,4 C 17,2 C 13,3 C 64 % 1011,5 hPa 0,0 l/m 0 min 0 min 42 W/m 6,4 km/h (2 Bft) 97,87 %
03.09.2022 08:54 17,6 C 17,2 C 13,3 C 64 % 1011,5 hPa 0,0 l/m 0 min 0 min 44 W/m 3,2 km/h (1 Bft) 100,00 %
03.09.2022 08:56 17,7 C 17,2 C 13,3 C 64 % 1011,5 hPa 0,0 l/m 0 min 0 min 44 W/m 16,1 km/h (3 Bft) 97,44 %
03.09.2022 08:58 17,7 C 17,2 C 13,3 C 64 % 1011,5 hPa 0,0 l/m 0 min 0 min 53 W/m 6,4 km/h (2 Bft) 100,00 %
03.09.2022 09:00 17,8 C 17,8 C 13,9 C 64 % 1011,5 hPa 0,0 l/m 2 min 0 min 217 W/m 12,9 km/h (3 Bft) 97,87 %
03.09.2022 09:02 17,9 C 17,8 C 13,9 C 63 % 1011,6 hPa 0,0 l/m 2 min 0 min 288 W/m 6,4 km/h (2 Bft) 91,49 %
03.09.2022 09:04 18,1 C 17,8 C 13,9 C 63 % 1011,6 hPa 0,0 l/m 2 min 0 min 290 W/m 12,9 km/h (3 Bft) 98,08 %
03.09.2022 09:06 18,2 C 17,8 C 13,9 C 63 % 1011,6 hPa 0,0 l/m 2 min 0 min 245 W/m 12,9 km/h (3 Bft) 97,87 %
03.09.2022 09:08 18,3 C 18,3 C 13,9 C 63 % 1011,6 hPa 0,0 l/m 2 min 0 min 254 W/m 6,4 km/h (2 Bft) 100,00 %
03.09.2022 09:10 18,3 C 18,3 C 13,9 C 63 % 1011,6 hPa 0,0 l/m 2 min 0 min 313 W/m 9,7 km/h (2 Bft) 97,96 %
03.09.2022 09:12 18,4 C 18,3 C 14,4 C 62 % 1011,6 hPa 0,0 l/m 2 min 0 min 300 W/m 16,1 km/h (3 Bft) 97,87 %
03.09.2022 09:14 18,6 C 18,3 C 14,4 C 61 % 1011,6 hPa 0,0 l/m 2 min 0 min 179 W/m 12,9 km/h (3 Bft) 100,00 %
03.09.2022 09:16 18,6 C 18,9 C 14,4 C 61 % 1011,6 hPa 0,0 l/m 0 min 0 min 174 W/m 6,4 km/h (2 Bft) 100,00 %
03.09.2022 09:18 18,8 C 18,9 C 14,4 C 61 % 1011,6 hPa 0,0 l/m 0 min 0 min 132 W/m 19,3 km/h (3 Bft) 97,83 %
03.09.2022 09:20 18,8 C 18,9 C 14,4 C 61 % 1011,7 hPa 0,0 l/m 0 min 0 min 142 W/m 12,9 km/h (3 Bft) 100,00 %
03.09.2022 09:22 18,9 C 18,9 C 14,4 C 61 % 1011,7 hPa 0,0 l/m 2 min 0 min 198 W/m 19,3 km/h (3 Bft) 100,00 %
03.09.2022 09:24 19,0 C 18,9 C 14,4 C 60 % 1011,6 hPa 0,0 l/m 0 min 0 min 124 W/m 16,1 km/h (3 Bft) 100,00 %
03.09.2022 09:26 19,1 C 18,9 C 14,4 C 60 % 1011,6 hPa 0,0 l/m 0 min 0 min 72 W/m 12,9 km/h (3 Bft) 100,00 %
03.09.2022 09:28 19,1 C 18,9 C 14,4 C 60 % 1011,6 hPa 0,0 l/m 0 min 0 min 139 W/m 12,9 km/h (3 Bft) 100,00 %
03.09.2022 09:30 19,2 C 18,9 C 14,4 C 60 % 1011,7 hPa 0,0 l/m 0 min 0 min 164 W/m 16,1 km/h (3 Bft) 100,00 %
03.09.2022 09:32 19,2 C 18,9 C 14,4 C 60 % 1011,6 hPa 0,0 l/m 0 min 0 min 127 W/m 6,4 km/h (2 Bft) 100,00 %
03.09.2022 09:34 19,3 C 18,9 C 15,0 C 60 % 1011,7 hPa 0,0 l/m 0 min 0 min 101 W/m 16,1 km/h (3 Bft) 100,00 %
03.09.2022 09:36 19,3 C 18,9 C 15,0 C 59 % 1011,6 hPa 0,0 l/m 0 min 0 min 87 W/m 12,9 km/h (3 Bft) 100,00 %
03.09.2022 09:38 19,3 C 18,9 C 15,0 C 59 % 1011,6 hPa 0,0 l/m 0 min 0 min 80 W/m 6,4 km/h (2 Bft) 100,00 %
03.09.2022 09:40 19,4 C 18,9 C 15,0 C 59 % 1011,6 hPa 0,0 l/m 0 min 0 min 76 W/m 12,9 km/h (3 Bft) 100,00 %
03.09.2022 09:42 19,4 C 18,9 C 15,0 C 59 % 1011,6 hPa 0,0 l/m 0 min 0 min 70 W/m 6,4 km/h (2 Bft) 100,00 %
03.09.2022 09:44 19,5 C 18,9 C 15,0 C 59 % 1011,6 hPa 0,0 l/m 0 min 0 min 105 W/m 6,4 km/h (2 Bft) 100,00 %
03.09.2022 09:46 19,5 C 18,9 C 15,0 C 59 % 1011,6 hPa 0,0 l/m 0 min 0 min 115 W/m 22,5 km/h (4 Bft) 100,00 %
03.09.2022 09:48 19,5 C 18,9 C 15,0 C 59 % 1011,6 hPa 0,0 l/m 0 min 0 min 108 W/m 16,1 km/h (3 Bft) 100,00 %
03.09.2022 09:50 19,6 C 18,9 C 15,0 C 59 % 1011,6 hPa 0,0 l/m 0 min 0 min 98 W/m 12,9 km/h (3 Bft) 100,00 %
03.09.2022 09:52 19,6 C 18,9 C 15,0 C 59 % 1011,6 hPa 0,0 l/m 0 min 0 min 62 W/m 19,3 km/h (3 Bft) 100,00 %
03.09.2022 09:54 19,6 C 18,9 C 15,0 C 59 % 1011,6 hPa 0,0 l/m 0 min 0 min 108 W/m 9,7 km/h (2 Bft) 100,00 %
03.09.2022 09:56 19,6 C 18,9 C 15,0 C 59 % 1011,6 hPa 0,0 l/m 0 min 0 min 199 W/m 12,9 km/h (3 Bft) 97,87 %
03.09.2022 09:58 19,6 C 18,9 C 15,0 C 59 % 1011,6 hPa 0,0 l/m 0 min 0 min 142 W/m 12,9 km/h (3 Bft) 100,00 %
03.09.2022 10:00 19,6 C 18,9 C 15,0 C 59 % 1011,5 hPa 0,0 l/m 0 min 0 min 101 W/m 12,9 km/h (3 Bft) 100,00 %
03.09.2022 10:02 19,7 C 19,4 C 15,0 C 59 % 1011,6 hPa 0,0 l/m 0 min 0 min 115 W/m 12,9 km/h (3 Bft) 100,00 %
03.09.2022 10:04 19,7 C 19,4 C 15,0 C 59 % 1011,6 hPa 0,0 l/m 0 min 0 min 96 W/m 12,9 km/h (3 Bft) 100,00 %
03.09.2022 10:06 19,8 C 19,4 C 15,6 C 59 % 1011,6 hPa 0,0 l/m 0 min 0 min 190 W/m 12,9 km/h (3 Bft) 97,83 %
03.09.2022 10:08 19,8 C 20,0 C 15,6 C 59 % 1011,6 hPa 0,0 l/m 0 min 0 min 146 W/m 6,4 km/h (2 Bft) 97,87 %
03.09.2022 10:10 19,9 C 20,0 C 15,6 C 59 % 1011,7 hPa 0,0 l/m 0 min 0 min 224 W/m 12,9 km/h (3 Bft) 97,87 %
03.09.2022 10:12 20,0 C 20,0 C 15,6 C 58 % 1011,7 hPa 0,0 l/m 0 min 0 min 157 W/m 12,9 km/h (3 Bft) 95,74 %
03.09.2022 10:14 20,1 C 20,0 C 15,6 C 58 % 1011,7 hPa 0,0 l/m 0 min 0 min 79 W/m 12,9 km/h (3 Bft) 97,87 %
03.09.2022 10:16 20,1 C 20,0 C 15,6 C 58 % 1011,7 hPa 0,0 l/m 0 min 0 min 120 W/m 16,1 km/h (3 Bft) 95,74 %
03.09.2022 10:18 20,2 C 20,0 C 15,6 C 58 % 1011,8 hPa 0,0 l/m 0 min 0 min 81 W/m 16,1 km/h (3 Bft) 97,83 %
03.09.2022 10:20 20,2 C 20,6 C 15,6 C 58 % 1011,8 hPa 0,0 l/m 0 min 0 min 69 W/m 16,1 km/h (3 Bft) 97,87 %
03.09.2022 10:22 20,3 C 21,1 C 15,6 C 58 % 1011,8 hPa 0,0 l/m 0 min 0 min 69 W/m 16,1 km/h (3 Bft) 93,62 %
03.09.2022 10:24 20,3 C 21,1 C 15,6 C 58 % 1011,8 hPa 0,0 l/m 0 min 0 min 69 W/m 22,5 km/h (4 Bft) 95,74 %
03.09.2022 10:26 20,4 C 21,1 C 16,1 C 58 % 1011,9 hPa 0,0 l/m 0 min 0 min 74 W/m 12,9 km/h (3 Bft) 93,62 %
03.09.2022 10:28 20,4 C 21,1 C 16,1 C 58 % 1011,9 hPa 0,0 l/m 0 min 0 min 95 W/m 9,7 km/h (2 Bft) 97,87 %
03.09.2022 10:30 20,5 C 21,1 C 16,1 C 58 % 1011,8 hPa 0,0 l/m 0 min 0 min 219 W/m 6,4 km/h (2 Bft) 95,65 %
03.09.2022 10:32 20,6 C 21,1 C 16,1 C 57 % 1011,9 hPa 0,0 l/m 0 min 0 min 238 W/m 16,1 km/h (3 Bft) 95,74 %
03.09.2022 10:34 20,7 C 21,1 C 16,1 C 57 % 1011,8 hPa 0,0 l/m 0 min 0 min 103 W/m 12,9 km/h (3 Bft) 97,87 %
03.09.2022 10:36 20,7 C 21,1 C 16,1 C 57 % 1011,8 hPa 0,0 l/m 0 min 0 min 69 W/m 16,1 km/h (3 Bft) 93,62 %
03.09.2022 10:38 20,8 C 21,1 C 16,1 C 57 % 1011,8 hPa 0,0 l/m 0 min 0 min 69 W/m 12,9 km/h (3 Bft) 93,62 %
03.09.2022 10:40 20,8 C 21,1 C 16,1 C 57 % 1011,9 hPa 0,0 l/m 0 min 0 min 69 W/m 6,4 km/h (2 Bft) 91,49 %
03.09.2022 10:42 20,9 C 21,1 C 16,1 C 57 % 1011,8 hPa 0,0 l/m 0 min 0 min 70 W/m 12,9 km/h (3 Bft) 91,30 %
03.09.2022 10:44 20,9 C 21,1 C 16,1 C 58 % 1011,9 hPa 0,0 l/m 0 min 0 min 70 W/m 6,4 km/h (2 Bft) 93,62 %
03.09.2022 10:46 20,9 C 22,2 C 16,1 C 57 % 1011,8 hPa 0,0 l/m 0 min 0 min 77 W/m 9,7 km/h (2 Bft) 93,62 %
03.09.2022 10:48 21,1 C 22,2 C 16,7 C 57 % 1011,8 hPa 0,0 l/m 0 min 0 min 81 W/m 16,1 km/h (3 Bft) 93,62 %
03.09.2022 10:50 21,1 C 22,2 C 16,7 C 57 % 1011,9 hPa 0,0 l/m 0 min 0 min 74 W/m 16,1 km/h (3 Bft) 95,74 %
03.09.2022 10:52 21,1 C 22,2 C 16,7 C 56 % 1011,8 hPa 0,0 l/m 0 min 0 min 90 W/m 22,5 km/h (4 Bft) 95,74 %
03.09.2022 10:54 21,2 C 22,2 C 16,7 C 56 % 1011,8 hPa 0,0 l/m 0 min 0 min 87 W/m 16,1 km/h (3 Bft) 93,48 %
03.09.2022 10:56 21,2 C 22,2 C 16,7 C 56 % 1011,8 hPa 0,0 l/m 0 min 0 min 99 W/m 16,1 km/h (3 Bft) 95,74 %
03.09.2022 10:58 21,2 C 21,7 C 16,7 C 56 % 1011,9 hPa 0,0 l/m 0 min 0 min 136 W/m 12,9 km/h (3 Bft) 97,87 %
03.09.2022 11:00 21,3 C 21,7 C 16,1 C 57 % 1011,9 hPa 0,0 l/m 0 min 0 min 153 W/m 22,5 km/h (4 Bft) 95,92 %
03.09.2022 11:02 21,3 C 21,7 C 16,7 C 57 % 1011,8 hPa 0,0 l/m 2 min 0 min 342 W/m 9,7 km/h (2 Bft) 93,62 %
03.09.2022 11:04 21,3 C 21,1 C 16,7 C 56 % 1011,9 hPa 0,0 l/m 2 min 0 min 527 W/m 9,7 km/h (2 Bft) 95,65 %
03.09.2022 11:06 21,3 C 21,1 C 16,7 C 56 % 1011,9 hPa 0,0 l/m 2 min 0 min 626 W/m 12,9 km/h (3 Bft) 93,62 %
03.09.2022 11:08 21,3 C 21,7 C 16,7 C 57 % 1011,8 hPa 0,0 l/m 2 min 0 min 497 W/m 6,4 km/h (2 Bft) 93,62 %
03.09.2022 11:10 21,4 C 21,7 C 16,7 C 57 % 1011,8 hPa 0,0 l/m 0 min 0 min 171 W/m 12,9 km/h (3 Bft) 95,74 %
03.09.2022 11:12 21,4 C 21,7 C 16,7 C 57 % 1011,8 hPa 0,0 l/m 0 min 0 min 121 W/m 12,9 km/h (3 Bft) 97,87 %
03.09.2022 11:14 21,5 C 21,7 C 16,7 C 57 % 1011,8 hPa 0,0 l/m 0 min 0 min 151 W/m 6,4 km/h (2 Bft) 95,74 %
03.09.2022 11:16 21,6 C 21,7 C 17,2 C 57 % 1011,8 hPa 0,0 l/m 0 min 0 min 175 W/m 9,7 km/h (2 Bft) 93,48 %
03.09.2022 11:18 21,6 C 22,2 C 17,2 C 56 % 1011,8 hPa 0,0 l/m 0 min 0 min 240 W/m 16,1 km/h (3 Bft) 97,87 %
03.09.2022 11:20 21,7 C 22,8 C 17,2 C 56 % 1011,9 hPa 0,0 l/m 0 min 0 min 241 W/m 12,9 km/h (3 Bft) 97,87 %
03.09.2022 11:22 21,7 C 22,8 C 17,2 C 56 % 1011,9 hPa 0,0 l/m 0 min 0 min 241 W/m 12,9 km/h (3 Bft) 97,87 %
03.09.2022 11:24 21,8 C 22,8 C 17,2 C 56 % 1011,9 hPa 0,0 l/m 0 min 0 min 127 W/m 16,1 km/h (3 Bft) 97,87 %
03.09.2022 11:26 21,8 C 22,2 C 17,2 C 57 % 1011,8 hPa 0,0 l/m 0 min 0 min 154 W/m 16,1 km/h (3 Bft) 95,74 %
03.09.2022 11:28 21,9 C 22,2 C 17,2 C 56 % 1011,8 hPa 0,0 l/m 0 min 0 min 185 W/m 9,7 km/h (2 Bft) 97,83 %
03.09.2022 11:30 21,9 C 22,2 C 17,2 C 56 % 1011,8 hPa 0,0 l/m 0 min 0 min 122 W/m 12,9 km/h (3 Bft) 97,87 %
03.09.2022 11:32 22,0 C 22,2 C 17,2 C 56 % 1011,8 hPa 0,0 l/m 0 min 0 min 124 W/m 12,9 km/h (3 Bft) 97,87 %
03.09.2022 11:34 22,0 C 22,2 C 17,2 C 57 % 1011,8 hPa 0,0 l/m 0 min 0 min 118 W/m 6,4 km/h (2 Bft) 97,87 %
03.09.2022 11:36 22,1 C 22,2 C 17,2 C 57 % 1011,8 hPa 0,0 l/m 0 min 0 min 133 W/m 16,1 km/h (3 Bft) 100,00 %
03.09.2022 11:38 22,1 C 22,8 C 17,8 C 57 % 1011,8 hPa 0,0 l/m 0 min 0 min 226 W/m 9,7 km/h (2 Bft) 100,00 %
03.09.2022 11:40 22,1 C 22,8 C 17,8 C 57 % 1011,8 hPa 0,0 l/m 0 min 0 min 289 W/m 12,9 km/h (3 Bft) 97,83 %
03.09.2022 11:42 22,2 C 22,8 C 17,8 C 57 % 1011,8 hPa 0,0 l/m 2 min 0 min 334 W/m 6,4 km/h (2 Bft) 100,00 %
03.09.2022 11:44 22,2 C 23,3 C 18,3 C 57 % 1011,8 hPa 0,0 l/m 0 min 0 min 221 W/m 6,4 km/h (2 Bft) 100,00 %
03.09.2022 11:46 22,3 C 23,3 C 18,3 C 57 % 1011,8 hPa 0,0 l/m 0 min 0 min 206 W/m 6,4 km/h (2 Bft) 100,00 %
03.09.2022 11:48 22,4 C 23,9 C 18,9 C 57 % 1011,7 hPa 0,0 l/m 0 min 0 min 122 W/m 6,4 km/h (2 Bft) 100,00 %
03.09.2022 11:50 22,6 C 23,9 C 18,9 C 57 % 1011,8 hPa 0,0 l/m 0 min 0 min 250 W/m 9,7 km/h (2 Bft) 100,00 %
03.09.2022 11:52 22,6 C 23,3 C 19,4 C 56 % 1011,7 hPa 0,0 l/m 0 min 0 min 250 W/m 3,2 km/h (1 Bft) 100,00 %
03.09.2022 11:54 22,7 C 23,9 C 20,0 C 57 % 1011,7 hPa 0,0 l/m 0 min 0 min 322 W/m 6,4 km/h (2 Bft) 100,00 %
03.09.2022 11:56 22,8 C 24,4 C 20,0 C 56 % 1011,7 hPa 0,0 l/m 2 min 0 min 691 W/m 12,9 km/h (3 Bft) 97,87 %
03.09.2022 11:58 22,9 C 25,0 C 21,1 C 56 % 1011,7 hPa 0,0 l/m 2 min 0 min 695 W/m 9,7 km/h (2 Bft) 100,00 %
03.09.2022 12:00 23,1 C 26,1 C 21,7 C 56 % 1011,7 hPa 0,0 l/m 2 min 0 min 693 W/m 16,1 km/h (3 Bft) 100,00 %
03.09.2022 12:02 23,1 C 26,7 C 22,2 C 56 % 1011,7 hPa 0,0 l/m 2 min 0 min 693 W/m 12,9 km/h (3 Bft) 100,00 %
03.09.2022 12:04 23,2 C 28,3 C 23,3 C 56 % 1011,7 hPa 0,0 l/m 2 min 0 min 695 W/m 12,9 km/h (3 Bft) 100,00 %
03.09.2022 12:08 23,4 C 29,4 C 23,9 C 56 % 1011,8 hPa 0,0 l/m 4 min 0 min 684 W/m 19,3 km/h (3 Bft) 100,00 %
03.09.2022 12:10 23,5 C 28,9 C 23,3 C 55 % 1011,8 hPa 0,0 l/m 2 min 0 min 655 W/m 16,1 km/h (3 Bft) 100,00 %
03.09.2022 12:12 23,6 C 29,4 C 23,9 C 55 % 1011,8 hPa 0,0 l/m 2 min 0 min 648 W/m 16,1 km/h (3 Bft) 97,87 %
03.09.2022 12:14 23,7 C 30,0 C 23,9 C 55 % 1011,8 hPa 0,0 l/m 2 min 0 min 671 W/m 9,7 km/h (2 Bft) 100,00 %
03.09.2022 12:16 23,7 C 30,0 C 23,9 C 55 % 1011,8 hPa 0,0 l/m 2 min 0 min 682 W/m 16,1 km/h (3 Bft) 100,00 %
03.09.2022 12:18 23,8 C 30,0 C 23,3 C 55 % 1011,8 hPa 0,0 l/m 2 min 0 min 684 W/m 16,1 km/h (3 Bft) 97,87 %
03.09.2022 12:20 23,8 C 28,9 C 22,8 C 55 % 1011,8 hPa 0,0 l/m 2 min 0 min 685 W/m 12,9 km/h (3 Bft) 100,00 %
03.09.2022 12:22 23,8 C 28,3 C 22,2 C 55 % 1011,8 hPa 0,0 l/m 2 min 0 min 695 W/m 16,1 km/h (3 Bft) 100,00 %
03.09.2022 12:24 23,8 C 28,3 C 22,2 C 56 % 1011,8 hPa 0,0 l/m 2 min 0 min 698 W/m 6,4 km/h (2 Bft) 97,87 %
03.09.2022 12:26 23,9 C 28,3 C 21,7 C 56 % 1011,8 hPa 0,0 l/m 2 min 0 min 694 W/m 9,7 km/h (2 Bft) 100,00 %
03.09.2022 12:28 23,9 C 27,8 C 20,6 C 55 % 1011,8 hPa 0,0 l/m 2 min 0 min 687 W/m 19,3 km/h (3 Bft) 100,00 %
03.09.2022 12:30 23,9 C 27,2 C 20,6 C 55 % 1011,8 hPa 0,0 l/m 2 min 0 min 688 W/m 12,9 km/h (3 Bft) 100,00 %
03.09.2022 12:32 23,9 C 26,7 C 20,0 C 56 % 1011,8 hPa 0,0 l/m 2 min 0 min 687 W/m 12,9 km/h (3 Bft) 100,00 %
03.09.2022 12:34 23,9 C 25,6 C 19,4 C 55 % 1011,8 hPa 0,0 l/m 2 min 0 min 685 W/m 12,9 km/h (3 Bft) 100,00 %
03.09.2022 12:36 23,9 C 25,0 C 19,4 C 56 % 1011,8 hPa 0,0 l/m 2 min 0 min 692 W/m 12,9 km/h (3 Bft) 100,00 %
03.09.2022 12:38 23,9 C 24,4 C 19,4 C 56 % 1011,9 hPa 0,0 l/m 2 min 0 min 673 W/m 19,3 km/h (3 Bft) 97,14 %
03.09.2022 12:40 23,8 C 23,9 C 19,4 C 56 % 1011,9 hPa 0,0 l/m 2 min 0 min 594 W/m 16,1 km/h (3 Bft) 95,74 %
03.09.2022 12:42 23,7 C 23,9 C 18,9 C 56 % 1011,9 hPa 0,0 l/m 2 min 0 min 558 W/m 12,9 km/h (3 Bft) 97,83 %
03.09.2022 12:44 23,7 C 23,9 C 18,9 C 56 % 1011,9 hPa 0,0 l/m 2 min 0 min 391 W/m 16,1 km/h (3 Bft) 93,62 %
03.09.2022 12:46 23,7 C 23,3 C 18,9 C 57 % 1011,9 hPa 0,0 l/m 0 min 0 min 211 W/m 12,9 km/h (3 Bft) 95,74 %
03.09.2022 12:48 23,7 C 23,9 C 18,9 C 57 % 1011,9 hPa 0,0 l/m 0 min 0 min 304 W/m 12,9 km/h (3 Bft) 95,74 %
03.09.2022 12:50 23,7 C 23,3 C 18,9 C 57 % 1011,9 hPa 0,0 l/m 2 min 0 min 559 W/m 22,5 km/h (4 Bft) 95,74 %
03.09.2022 12:52 23,7 C 23,3 C 18,9 C 57 % 1011,9 hPa 0,0 l/m 2 min 0 min 360 W/m 16,1 km/h (3 Bft) 91,49 %
03.09.2022 12:54 23,7 C 23,3 C 18,9 C 57 % 1011,9 hPa 0,0 l/m 0 min 0 min 205 W/m 6,4 km/h (2 Bft) 95,74 %
03.09.2022 12:56 23,7 C 23,3 C 18,9 C 57 % 1011,9 hPa 0,0 l/m 0 min 0 min 222 W/m 12,9 km/h (3 Bft) 95,65 %
03.09.2022 12:58 23,6 C 23,3 C 18,9 C 57 % 1011,9 hPa 0,0 l/m 0 min 0 min 347 W/m 12,9 km/h (3 Bft) 95,74 %
03.09.2022 13:00 23,6 C 23,3 C 18,9 C 57 % 1011,9 hPa 0,0 l/m 0 min 0 min 340 W/m 16,1 km/h (3 Bft) 95,74 %
03.09.2022 13:02 23,6 C 23,3 C 18,9 C 57 % 1011,8 hPa 0,0 l/m 0 min 0 min 188 W/m 19,3 km/h (3 Bft) 95,74 %
03.09.2022 13:04 23,6 C 23,3 C 18,9 C 57 % 1011,8 hPa 0,0 l/m 0 min 0 min 128 W/m 6,4 km/h (2 Bft) 91,49 %
03.09.2022 13:06 23,7 C 23,3 C 18,9 C 57 % 1011,8 hPa 0,0 l/m 0 min 0 min 128 W/m 12,9 km/h (3 Bft) 96,55 %
03.09.2022 13:08 23,7 C 23,3 C 18,9 C 57 % 1011,8 hPa 0,0 l/m 0 min 0 min 131 W/m 12,9 km/h (3 Bft) 94,29 %
03.09.2022 13:10 23,8 C 23,9 C 19,4 C 57 % 1011,8 hPa 0,0 l/m 0 min 0 min 139 W/m 6,4 km/h (2 Bft) 95,74 %
03.09.2022 13:12 23,9 C 23,9 C 19,4 C 57 % 1011,8 hPa 0,0 l/m 0 min 0 min 125 W/m 9,7 km/h (2 Bft) 95,74 %
03.09.2022 13:14 23,9 C 23,9 C 19,4 C 57 % 1011,8 hPa 0,0 l/m 0 min 0 min 115 W/m 12,9 km/h (3 Bft) 97,87 %
03.09.2022 13:16 23,9 C 23,3 C 19,4 C 56 % 1011,8 hPa 0,0 l/m 0 min 0 min 121 W/m 12,9 km/h (3 Bft) 95,74 %
03.09.2022 13:18 23,9 C 23,3 C 19,4 C 56 % 1011,8 hPa 0,0 l/m 0 min 0 min 154 W/m 16,1 km/h (3 Bft) 97,83 %
03.09.2022 13:20 23,9 C 23,3 C 19,4 C 56 % 1011,7 hPa 0,0 l/m 0 min 0 min 130 W/m 16,1 km/h (3 Bft) 100,00 %
03.09.2022 13:22 24,0 C 23,9 C 19,4 C 57 % 1011,8 hPa 0,0 l/m 0 min 0 min 157 W/m 9,7 km/h (2 Bft) 100,00 %
03.09.2022 13:24 24,0 C 23,3 C 19,4 C 56 % 1011,8 hPa 0,0 l/m 0 min 0 min 173 W/m 19,3 km/h (3 Bft) 100,00 %
03.09.2022 13:26 24,0 C 23,3 C 19,4 C 56 % 1011,8 hPa 0,0 l/m 0 min 0 min 155 W/m 12,9 km/h (3 Bft) 100,00 %
03.09.2022 13:28 24,0 C 23,3 C 19,4 C 57 % 1011,8 hPa 0,0 l/m 0 min 0 min 211 W/m 16,1 km/h (3 Bft) 100,00 %
03.09.2022 13:30 24,1 C 23,9 C 19,4 C 57 % 1011,8 hPa 0,0 l/m 0 min 0 min 316 W/m 19,3 km/h (3 Bft) 100,00 %
03.09.2022 13:32 24,1 C 23,9 C 19,4 C 57 % 1011,7 hPa 0,0 l/m 0 min 0 min 343 W/m 6,4 km/h (2 Bft) 97,87 %
03.09.2022 13:34 24,1 C 23,9 C 19,4 C 57 % 1011,7 hPa 0,0 l/m 2 min 0 min 761 W/m 12,9 km/h (3 Bft) 100,00 %
03.09.2022 13:36 24,1 C 23,9 C 19,4 C 57 % 1011,7 hPa 0,0 l/m 2 min 0 min 770 W/m 16,1 km/h (3 Bft) 100,00 %
03.09.2022 13:38 24,2 C 23,9 C 19,4 C 57 % 1011,7 hPa 0,0 l/m 2 min 0 min 774 W/m 12,9 km/h (3 Bft) 100,00 %
03.09.2022 13:40 24,2 C 23,9 C 19,4 C 56 % 1011,7 hPa 0,0 l/m 2 min 0 min 774 W/m 12,9 km/h (3 Bft) 100,00 %
03.09.2022 13:42 24,2 C 24,4 C 19,4 C 57 % 1011,6 hPa 0,0 l/m 2 min 0 min 773 W/m 6,4 km/h (2 Bft) 100,00 %
03.09.2022 13:44 24,3 C 24,4 C 19,4 C 57 % 1011,5 hPa 0,0 l/m 2 min 0 min 772 W/m 6,4 km/h (2 Bft) 100,00 %
03.09.2022 13:46 24,4 C 24,4 C 19,4 C 57 % 1011,6 hPa 0,0 l/m 2 min 0 min 768 W/m 16,1 km/h (3 Bft) 97,87 %
03.09.2022 13:48 24,4 C 25,0 C 19,4 C 57 % 1011,5 hPa 0,0 l/m 2 min 0 min 766 W/m 12,9 km/h (3 Bft) 100,00 %
03.09.2022 13:50 24,5 C 25,0 C 19,4 C 57 % 1011,5 hPa 0,0 l/m 2 min 0 min 766 W/m 16,1 km/h (3 Bft) 100,00 %
03.09.2022 13:52 24,6 C 25,6 C 19,4 C 57 % 1011,5 hPa 0,0 l/m 2 min 0 min 763 W/m 12,9 km/h (3 Bft) 100,00 %
03.09.2022 13:54 24,7 C 26,7 C 20,0 C 58 % 1011,5 hPa 0,0 l/m 2 min 0 min 760 W/m 9,7 km/h (2 Bft) 100,00 %
03.09.2022 13:56 24,8 C 28,3 C 20,0 C 57 % 1011,5 hPa 0,0 l/m 2 min 0 min 761 W/m 12,9 km/h (3 Bft) 91,49 %
03.09.2022 13:58 24,9 C 28,9 C 20,0 C 56 % 1011,6 hPa 0,0 l/m 2 min 0 min 765 W/m 16,1 km/h (3 Bft) 97,87 %
03.09.2022 14:00 24,9 C 29,4 C 20,0 C 55 % 1011,6 hPa 0,0 l/m 2 min 0 min 766 W/m 12,9 km/h (3 Bft) 100,00 %
03.09.2022 14:02 24,9 C 29,4 C 19,4 C 56 % 1011,5 hPa 0,0 l/m 2 min 0 min 763 W/m 19,3 km/h (3 Bft) 97,87 %
03.09.2022 14:04 24,9 C 30,0 C 19,4 C 56 % 1011,6 hPa 0,0 l/m 2 min 0 min 761 W/m 16,1 km/h (3 Bft) 97,92 %
03.09.2022 14:06 25,0 C 31,1 C 19,4 C 56 % 1011,6 hPa 0,0 l/m 2 min 0 min 759 W/m 9,7 km/h (2 Bft) 98,28 %
03.09.2022 14:08 25,1 C 31,1 C 20,0 C 56 % 1011,6 hPa 0,0 l/m 2 min 0 min 757 W/m 9,7 km/h (2 Bft) 97,14 %
03.09.2022 14:10 25,1 C 31,7 C 20,0 C 56 % 1011,6 hPa 0,0 l/m 2 min 0 min 757 W/m 9,7 km/h (2 Bft) 97,87 %
03.09.2022 14:12 25,2 C 31,7 C 20,0 C 56 % 1011,5 hPa 0,0 l/m 2 min 0 min 758 W/m 12,9 km/h (3 Bft) 97,87 %
03.09.2022 14:14 25,2 C 31,1 C 20,0 C 56 % 1011,5 hPa 0,0 l/m 2 min 0 min 757 W/m 12,9 km/h (3 Bft) 97,87 %
03.09.2022 14:16 25,3 C 30,6 C 19,4 C 55 % 1011,5 hPa 0,0 l/m 2 min 0 min 755 W/m 12,9 km/h (3 Bft) 97,87 %
03.09.2022 14:18 25,3 C 30,6 C 19,4 C 55 % 1011,5 hPa 0,0 l/m 2 min 0 min 753 W/m 12,9 km/h (3 Bft) 97,83 %
03.09.2022 14:20 25,3 C 31,1 C 20,0 C 56 % 1011,4 hPa 0,0 l/m 2 min 0 min 752 W/m 12,9 km/h (3 Bft) 97,87 %
03.09.2022 14:22 25,4 C 30,6 C 20,0 C 56 % 1011,5 hPa 0,0 l/m 2 min 0 min 750 W/m 9,7 km/h (2 Bft) 97,87 %
03.09.2022 14:24 25,4 C 30,6 C 20,0 C 56 % 1011,5 hPa 0,0 l/m 2 min 0 min 750 W/m 9,7 km/h (2 Bft) 97,87 %
03.09.2022 14:26 25,5 C 31,1 C 20,0 C 55 % 1011,5 hPa 0,0 l/m 2 min 0 min 748 W/m 6,4 km/h (2 Bft) 95,74 %
03.09.2022 14:28 25,6 C 30,6 C 20,0 C 55 % 1011,5 hPa 0,0 l/m 2 min 0 min 747 W/m 9,7 km/h (2 Bft) 97,87 %
03.09.2022 14:30 25,6 C 30,6 C 20,0 C 55 % 1011,5 hPa 0,0 l/m 2 min 0 min 745 W/m 16,1 km/h (3 Bft) 97,83 %
03.09.2022 14:32 25,6 C 30,6 C 20,0 C 56 % 1011,5 hPa 0,0 l/m 2 min 0 min 744 W/m 9,7 km/h (2 Bft) 95,74 %
03.09.2022 14:34 25,6 C 31,1 C 20,0 C 55 % 1011,5 hPa 0,0 l/m 2 min 0 min 742 W/m 6,4 km/h (2 Bft) 97,87 %
03.09.2022 14:36 25,7 C 31,1 C 20,0 C 56 % 1011,5 hPa 0,0 l/m 2 min 0 min 739 W/m 6,4 km/h (2 Bft) 98,31 %
03.09.2022 14:38 25,7 C 29,4 C 20,0 C 55 % 1011,5 hPa 0,0 l/m 2 min 0 min 736 W/m 9,7 km/h (2 Bft) 97,14 %
03.09.2022 14:40 25,7 C 28,9 C 20,0 C 55 % 1011,5 hPa 0,0 l/m 2 min 0 min 736 W/m 9,7 km/h (2 Bft) 97,83 %
03.09.2022 14:42 25,7 C 27,8 C 20,0 C 55 % 1011,5 hPa 0,0 l/m 2 min 0 min 732 W/m 9,7 km/h (2 Bft) 95,74 %
03.09.2022 14:44 25,7 C 28,3 C 20,0 C 56 % 1011,4 hPa 0,0 l/m 2 min 0 min 729 W/m 9,7 km/h (2 Bft) 93,62 %
03.09.2022 14:46 25,7 C 28,3 C 20,0 C 56 % 1011,5 hPa 0,0 l/m 2 min 0 min 729 W/m 12,9 km/h (3 Bft) 93,62 %
03.09.2022 14:48 25,7 C 28,3 C 20,0 C 55 % 1011,5 hPa 0,0 l/m 2 min 0 min 730 W/m 9,7 km/h (2 Bft) 95,74 %
03.09.2022 14:50 25,8 C 28,9 C 20,0 C 56 % 1011,4 hPa 0,0 l/m 2 min 0 min 726 W/m 6,4 km/h (2 Bft) 95,74 %
03.09.2022 14:52 25,8 C 28,9 C 20,0 C 55 % 1011,5 hPa 0,0 l/m 2 min 0 min 726 W/m 16,1 km/h (3 Bft) 93,62 %
03.09.2022 14:54 25,9 C 29,4 C 20,0 C 55 % 1011,5 hPa 0,0 l/m 2 min 0 min 724 W/m 9,7 km/h (2 Bft) 95,65 %
03.09.2022 14:56 25,9 C 29,4 C 20,0 C 55 % 1011,5 hPa 0,0 l/m 2 min 0 min 721 W/m 6,4 km/h (2 Bft) 95,74 %
03.09.2022 14:58 25,9 C 30,0 C 20,0 C 56 % 1011,4 hPa 0,0 l/m 2 min 0 min 719 W/m 9,7 km/h (2 Bft) 95,74 %
03.09.2022 15:00 25,9 C 30,0 C 20,0 C 56 % 1011,4 hPa 0,0 l/m 2 min 0 min 716 W/m 12,9 km/h (3 Bft) 97,87 %
03.09.2022 15:02 26,0 C 29,4 C 20,0 C 55 % 1011,4 hPa 0,0 l/m 2 min 0 min 714 W/m 6,4 km/h (2 Bft) 95,74 %
03.09.2022 15:04 26,1 C 29,4 C 20,6 C 56 % 1011,4 hPa 0,0 l/m 2 min 0 min 714 W/m 9,7 km/h (2 Bft) 97,83 %
03.09.2022 15:06 26,1 C 29,4 C 20,6 C 55 % 1011,4 hPa 0,0 l/m 2 min 0 min 710 W/m 9,7 km/h (2 Bft) 98,31 %
03.09.2022 15:08 26,2 C 29,4 C 20,6 C 55 % 1011,3 hPa 0,0 l/m 2 min 0 min 706 W/m 6,4 km/h (2 Bft) 97,14 %
03.09.2022 15:10 26,2 C 30,0 C 20,6 C 56 % 1011,3 hPa 0,0 l/m 2 min 0 min 706 W/m 9,7 km/h (2 Bft) 95,74 %
03.09.2022 15:12 26,3 C 28,9 C 20,6 C 55 % 1011,3 hPa 0,0 l/m 2 min 0 min 704 W/m 12,9 km/h (3 Bft) 97,87 %
03.09.2022 15:14 26,3 C 28,9 C 20,6 C 55 % 1011,3 hPa 0,0 l/m 2 min 0 min 701 W/m 6,4 km/h (2 Bft) 97,87 %
03.09.2022 15:16 26,3 C 28,9 C 20,6 C 55 % 1011,3 hPa 0,0 l/m 2 min 0 min 698 W/m 6,4 km/h (2 Bft) 97,83 %
03.09.2022 15:18 26,4 C 28,9 C 21,1 C 56 % 1011,3 hPa 0,0 l/m 2 min 0 min 696 W/m 9,7 km/h (2 Bft) 97,87 %
03.09.2022 15:20 26,6 C 29,4 C 21,1 C 55 % 1011,2 hPa 0,0 l/m 2 min 0 min 690 W/m 6,4 km/h (2 Bft) 95,74 %
03.09.2022 15:22 26,7 C 28,9 C 21,1 C 55 % 1011,3 hPa 0,0 l/m 2 min 0 min 690 W/m 12,9 km/h (3 Bft) 95,74 %
03.09.2022 15:24 26,6 C 28,3 C 21,1 C 55 % 1011,2 hPa 0,0 l/m 2 min 0 min 684 W/m 9,7 km/h (2 Bft) 97,87 %
03.09.2022 15:26 26,7 C 28,3 C 21,1 C 55 % 1011,2 hPa 0,0 l/m 2 min 0 min 685 W/m 6,4 km/h (2 Bft) 97,87 %
03.09.2022 15:28 26,7 C 28,3 C 21,1 C 54 % 1011,2 hPa 0,0 l/m 2 min 0 min 680 W/m 9,7 km/h (2 Bft) 97,83 %
03.09.2022 15:30 26,7 C 28,9 C 21,1 C 55 % 1011,2 hPa 0,0 l/m 2 min 0 min 674 W/m 6,4 km/h (2 Bft) 97,87 %
03.09.2022 15:32 26,7 C 28,9 C 21,1 C 55 % 1011,2 hPa 0,0 l/m 2 min 0 min 670 W/m 12,9 km/h (3 Bft) 97,87 %
03.09.2022 15:34 26,8 C 28,3 C 21,1 C 54 % 1011,2 hPa 0,0 l/m 2 min 0 min 666 W/m 9,7 km/h (2 Bft) 97,87 %
03.09.2022 15:36 26,8 C 28,9 C 21,1 C 55 % 1011,2 hPa 0,0 l/m 2 min 0 min 661 W/m 12,9 km/h (3 Bft) 96,55 %
03.09.2022 15:38 26,9 C 28,9 C 21,1 C 55 % 1011,2 hPa 0,0 l/m 2 min 0 min 657 W/m 9,7 km/h (2 Bft) 97,22 %
03.09.2022 15:40 26,9 C 28,9 C 21,1 C 55 % 1011,2 hPa 0,0 l/m 2 min 0 min 659 W/m 9,7 km/h (2 Bft) 97,83 %
03.09.2022 15:42 26,9 C 28,3 C 21,1 C 54 % 1011,2 hPa 0,0 l/m 2 min 0 min 659 W/m 9,7 km/h (2 Bft) 97,87 %
03.09.2022 15:44 26,8 C 28,3 C 21,1 C 54 % 1011,2 hPa 0,0 l/m 2 min 0 min 655 W/m 6,4 km/h (2 Bft) 97,87 %
03.09.2022 15:46 26,8 C 28,9 C 21,1 C 55 % 1011,2 hPa 0,0 l/m 2 min 0 min 649 W/m 19,3 km/h (3 Bft) 97,87 %
03.09.2022 15:48 26,8 C 28,9 C 21,1 C 55 % 1011,2 hPa 0,0 l/m 2 min 0 min 652 W/m 9,7 km/h (2 Bft) 97,87 %
03.09.2022 15:50 26,9 C 28,3 C 21,1 C 55 % 1011,3 hPa 0,0 l/m 2 min 0 min 653 W/m 6,4 km/h (2 Bft) 97,87 %
03.09.2022 15:52 26,9 C 28,3 C 21,1 C 54 % 1011,2 hPa 0,0 l/m 2 min 0 min 649 W/m 6,4 km/h (2 Bft) 97,83 %
03.09.2022 15:54 27,0 C 28,3 C 21,1 C 55 % 1011,2 hPa 0,0 l/m 2 min 0 min 664 W/m 9,7 km/h (2 Bft) 95,74 %
03.09.2022 15:56 27,1 C 28,9 C 21,7 C 55 % 1011,2 hPa 0,0 l/m 2 min 0 min 663 W/m 9,7 km/h (2 Bft) 97,87 %
03.09.2022 15:58 27,1 C 28,9 C 21,7 C 55 % 1011,2 hPa 0,0 l/m 2 min 0 min 659 W/m 9,7 km/h (2 Bft) 100,00 %
03.09.2022 16:00 27,2 C 28,9 C 21,7 C 54 % 1011,2 hPa 0,0 l/m 2 min 0 min 653 W/m 12,9 km/h (3 Bft) 97,87 %
03.09.2022 16:02 27,2 C 28,9 C 21,7 C 54 % 1011,2 hPa 0,0 l/m 2 min 0 min 661 W/m 6,4 km/h (2 Bft) 100,00 %
03.09.2022 16:04 27,2 C 28,9 C 21,7 C 54 % 1011,1 hPa 0,0 l/m 2 min 0 min 659 W/m 16,1 km/h (3 Bft) 97,83 %
03.09.2022 16:06 27,2 C 28,9 C 21,7 C 54 % 1011,2 hPa 0,0 l/m 2 min 0 min 655 W/m 9,7 km/h (2 Bft) 100,00 %
03.09.2022 16:08 27,2 C 29,4 C 21,7 C 54 % 1011,1 hPa 0,0 l/m 2 min 0 min 646 W/m 6,4 km/h (2 Bft) 100,00 %
03.09.2022 16:10 27,2 C 28,9 C 21,7 C 55 % 1011,1 hPa 0,0 l/m 2 min 0 min 644 W/m 12,9 km/h (3 Bft) 100,00 %
03.09.2022 16:12 27,2 C 28,3 C 21,7 C 54 % 1011,1 hPa 0,0 l/m 2 min 0 min 623 W/m 6,4 km/h (2 Bft) 100,00 %
03.09.2022 16:14 27,1 C 27,8 C 21,1 C 54 % 1011,2 hPa 0,0 l/m 2 min 0 min 596 W/m 12,9 km/h (3 Bft) 100,00 %
03.09.2022 16:15 27,1 C 27,8 C 21,1 C 54 % 1011,2 hPa 0,0 l/m 1 min 0 min 595 W/m 12,9 km/h (3 Bft) 100,00 %
03.09.2022 16:20 27,2 C 28,3 C 21,7 C 55 % 1011,2 hPa 0,0 l/m 5 min 0 min 592 W/m 6,4 km/h (2 Bft) 100,00 %
03.09.2022 16:22 27,3 C 27,8 C 21,7 C 54 % 1011,2 hPa 0,0 l/m 2 min 0 min 589 W/m 9,7 km/h (2 Bft) 100,00 %
03.09.2022 16:24 27,3 C 27,8 C 21,7 C 54 % 1011,2 hPa 0,0 l/m 2 min 0 min 583 W/m 6,4 km/h (2 Bft) 97,87 %
03.09.2022 16:26 27,4 C 28,9 C 21,7 C 54 % 1011,2 hPa 0,0 l/m 2 min 0 min 582 W/m 9,7 km/h (2 Bft) 100,00 %
03.09.2022 16:28 27,5 C 29,4 C 21,7 C 55 % 1011,2 hPa 0,0 l/m 2 min 0 min 582 W/m 6,4 km/h (2 Bft) 100,00 %
03.09.2022 16:30 27,6 C 29,4 C 21,7 C 54 % 1011,2 hPa 0,0 l/m 2 min 0 min 575 W/m 6,4 km/h (2 Bft) 97,87 %
03.09.2022 16:32 27,6 C 29,4 C 21,7 C 54 % 1011,2 hPa 0,0 l/m 2 min 0 min 558 W/m 6,4 km/h (2 Bft) 97,87 %
03.09.2022 16:34 27,6 C 28,9 C 21,7 C 53 % 1011,3 hPa 0,0 l/m 2 min 0 min 547 W/m 6,4 km/h (2 Bft) 97,87 %
03.09.2022 16:36 27,5 C 28,3 C 21,7 C 54 % 1011,2 hPa 0,0 l/m 2 min 0 min 546 W/m 6,4 km/h (2 Bft) 97,87 %
03.09.2022 16:38 27,5 C 28,3 C 21,7 C 54 % 1011,2 hPa 0,0 l/m 2 min 0 min 546 W/m 6,4 km/h (2 Bft) 97,87 %
03.09.2022 16:40 27,5 C 27,8 C 21,7 C 54 % 1011,2 hPa 0,0 l/m 2 min 0 min 541 W/m 6,4 km/h (2 Bft) 97,83 %
03.09.2022 16:42 27,6 C 28,3 C 21,7 C 54 % 1011,2 hPa 0,0 l/m 2 min 0 min 542 W/m 9,7 km/h (2 Bft) 97,87 %
03.09.2022 16:44 27,6 C 28,9 C 21,7 C 54 % 1011,1 hPa 0,0 l/m 2 min 0 min 554 W/m 6,4 km/h (2 Bft) 97,87 %
03.09.2022 16:46 27,6 C 28,3 C 21,7 C 54 % 1011,1 hPa 0,0 l/m 2 min 0 min 550 W/m 6,4 km/h (2 Bft) 97,87 %
03.09.2022 16:48 27,7 C 28,3 C 21,7 C 53 % 1011,2 hPa 0,0 l/m 2 min 0 min 537 W/m 6,4 km/h (2 Bft) 97,87 %
03.09.2022 16:50 27,6 C 28,3 C 21,7 C 53 % 1011,2 hPa 0,0 l/m 2 min 0 min 527 W/m 12,9 km/h (3 Bft) 97,83 %
03.09.2022 16:52 27,6 C 28,3 C 21,7 C 53 % 1011,1 hPa 0,0 l/m 2 min 0 min 518 W/m 6,4 km/h (2 Bft) 97,87 %
03.09.2022 16:54 27,6 C 28,3 C 21,7 C 53 % 1011,2 hPa 0,0 l/m 2 min 0 min 511 W/m 12,9 km/h (3 Bft) 97,87 %
03.09.2022 16:56 27,6 C 28,9 C 21,7 C 53 % 1011,2 hPa 0,0 l/m 2 min 0 min 513 W/m 6,4 km/h (2 Bft) 95,74 %
03.09.2022 16:58 27,6 C 29,4 C 21,7 C 53 % 1011,2 hPa 0,0 l/m 2 min 0 min 513 W/m 9,7 km/h (2 Bft) 97,87 %
03.09.2022 17:00 27,5 C 29,4 C 21,7 C 53 % 1011,2 hPa 0,0 l/m 2 min 0 min 510 W/m 6,4 km/h (2 Bft) 97,87 %
03.09.2022 17:02 27,4 C 30,0 C 21,7 C 53 % 1011,2 hPa 0,0 l/m 2 min 0 min 511 W/m 3,2 km/h (1 Bft) 100,00 %
03.09.2022 17:04 27,4 C 30,0 C 21,7 C 53 % 1011,2 hPa 0,0 l/m 2 min 0 min 509 W/m 12,9 km/h (3 Bft) 100,00 %
03.09.2022 17:06 27,4 C 30,0 C 21,7 C 53 % 1011,2 hPa 0,0 l/m 2 min 0 min 513 W/m 9,7 km/h (2 Bft) 100,00 %
03.09.2022 17:08 27,5 C 30,6 C 21,7 C 53 % 1011,2 hPa 0,0 l/m 2 min 0 min 516 W/m 6,4 km/h (2 Bft) 97,87 %
03.09.2022 17:10 27,5 C 30,6 C 21,7 C 53 % 1011,2 hPa 0,0 l/m 2 min 0 min 505 W/m 6,4 km/h (2 Bft) 100,00 %
03.09.2022 17:12 27,4 C 30,6 C 21,7 C 52 % 1011,2 hPa 0,0 l/m 2 min 0 min 505 W/m 9,7 km/h (2 Bft) 100,00 %
03.09.2022 17:14 27,4 C 30,0 C 21,7 C 53 % 1011,2 hPa 0,0 l/m 2 min 0 min 504 W/m 3,2 km/h (1 Bft) 97,83 %
03.09.2022 17:16 27,4 C 30,6 C 22,2 C 53 % 1011,1 hPa 0,0 l/m 2 min 0 min 488 W/m 6,4 km/h (2 Bft) 95,74 %
03.09.2022 17:18 27,5 C 30,6 C 22,2 C 53 % 1011,2 hPa 0,0 l/m 2 min 0 min 484 W/m 6,4 km/h (2 Bft) 97,87 %
03.09.2022 17:20 27,6 C 30,6 C 22,2 C 53 % 1011,2 hPa 0,0 l/m 2 min 0 min 494 W/m 6,4 km/h (2 Bft) 95,74 %
03.09.2022 17:22 27,6 C 31,1 C 22,8 C 52 % 1011,2 hPa 0,0 l/m 2 min 0 min 493 W/m 6,4 km/h (2 Bft) 97,87 %
03.09.2022 17:24 27,6 C 30,6 C 22,8 C 53 % 1011,2 hPa 0,0 l/m 2 min 0 min 486 W/m 6,4 km/h (2 Bft) 97,87 %
03.09.2022 17:26 27,6 C 30,6 C 22,2 C 52 % 1011,1 hPa 0,0 l/m 2 min 0 min 468 W/m 9,7 km/h (2 Bft) 97,83 %
03.09.2022 17:28 27,6 C 30,0 C 22,2 C 52 % 1011,2 hPa 0,0 l/m 2 min 0 min 446 W/m 12,9 km/h (3 Bft) 97,87 %
03.09.2022 17:30 27,6 C 30,0 C 22,2 C 52 % 1011,2 hPa 0,0 l/m 2 min 0 min 435 W/m 6,4 km/h (2 Bft) 97,87 %
03.09.2022 17:32 27,6 C 30,0 C 22,2 C 52 % 1011,2 hPa 0,0 l/m 2 min 0 min 427 W/m 9,7 km/h (2 Bft) 97,87 %
03.09.2022 17:34 27,6 C 30,6 C 22,8 C 52 % 1011,2 hPa 0,0 l/m 2 min 0 min 415 W/m 6,4 km/h (2 Bft) 97,87 %
03.09.2022 17:36 27,6 C 30,0 C 22,8 C 52 % 1011,2 hPa 0,0 l/m 2 min 0 min 393 W/m 12,9 km/h (3 Bft) 100,00 %
03.09.2022 17:38 27,7 C 30,6 C 22,2 C 52 % 1011,2 hPa 0,0 l/m 2 min 0 min 388 W/m 6,4 km/h (2 Bft) 95,65 %
03.09.2022 17:40 27,6 C 30,6 C 22,8 C 52 % 1011,2 hPa 0,0 l/m 2 min 0 min 375 W/m 6,4 km/h (2 Bft) 93,62 %
03.09.2022 17:42 27,7 C 30,6 C 22,8 C 52 % 1011,2 hPa 0,0 l/m 2 min 0 min 329 W/m 6,4 km/h (2 Bft) 95,74 %
03.09.2022 17:44 27,7 C 29,4 C 22,2 C 52 % 1011,2 hPa 0,0 l/m 0 min 0 min 186 W/m 3,2 km/h (1 Bft) 97,87 %
03.09.2022 17:46 27,6 C 28,9 C 22,2 C 52 % 1011,2 hPa 0,0 l/m 0 min 0 min 126 W/m 3,2 km/h (1 Bft) 97,87 %
03.09.2022 17:48 27,6 C 29,4 C 22,2 C 53 % 1011,2 hPa 0,0 l/m 2 min 0 min 316 W/m 3,2 km/h (1 Bft) 97,87 %
03.09.2022 17:50 27,6 C 30,0 C 22,2 C 52 % 1011,2 hPa 0,0 l/m 2 min 0 min 359 W/m 6,4 km/h (2 Bft) 97,83 %
03.09.2022 17:52 27,6 C 30,6 C 22,2 C 52 % 1011,2 hPa 0,0 l/m 2 min 0 min 352 W/m 9,7 km/h (2 Bft) 97,87 %
03.09.2022 17:54 27,5 C 30,6 C 22,2 C 52 % 1011,2 hPa 0,0 l/m 2 min 0 min 348 W/m 6,4 km/h (2 Bft) 95,74 %
03.09.2022 17:56 27,4 C 30,6 C 21,7 C 52 % 1011,2 hPa 0,0 l/m 2 min 0 min 344 W/m 9,7 km/h (2 Bft) 93,62 %
03.09.2022 17:58 27,4 C 30,6 C 21,7 C 52 % 1011,2 hPa 0,0 l/m 2 min 0 min 339 W/m 9,7 km/h (2 Bft) 95,74 %
03.09.2022 18:00 27,4 C 30,6 C 21,7 C 52 % 1011,2 hPa 0,0 l/m 2 min 0 min 336 W/m 12,9 km/h (3 Bft) 95,74 %
03.09.2022 18:02 27,3 C 30,0 C 21,7 C 51 % 1011,2 hPa 0,0 l/m 2 min 0 min 328 W/m 12,9 km/h (3 Bft) 95,65 %
03.09.2022 18:04 27,3 C 30,6 C 21,7 C 52 % 1011,2 hPa 0,0 l/m 2 min 0 min 320 W/m 6,4 km/h (2 Bft) 95,74 %
03.09.2022 18:07 27,3 C 31,1 C 21,7 C 52 % 1011,2 hPa 0,0 l/m 3 min 0 min 313 W/m 3,2 km/h (1 Bft) 92,50 %
03.09.2022 18:08 27,3 C 30,6 C 21,7 C 52 % 1011,2 hPa 0,0 l/m 1 min 0 min 303 W/m 3,2 km/h (1 Bft) 100,00 %
03.09.2022 18:12 27,2 C 30,0 C 21,7 C 52 % 1011,2 hPa 0,0 l/m 4 min 0 min 285 W/m 3,2 km/h (1 Bft) 94,64 %
03.09.2022 18:14 27,3 C 30,6 C 21,7 C 53 % 1011,2 hPa 0,0 l/m 2 min 0 min 269 W/m 6,4 km/h (2 Bft) 97,83 %
03.09.2022 18:16 27,4 C 30,6 C 21,7 C 53 % 1011,2 hPa 0,0 l/m 2 min 0 min 261 W/m 3,2 km/h (1 Bft) 97,87 %
03.09.2022 18:18 27,4 C 30,6 C 21,7 C 53 % 1011,2 hPa 0,0 l/m 2 min 0 min 261 W/m 6,4 km/h (2 Bft) 95,74 %
03.09.2022 18:20 27,6 C 31,1 C 22,2 C 52 % 1011,2 hPa 0,0 l/m 2 min 0 min 262 W/m 3,2 km/h (1 Bft) 95,74 %
03.09.2022 18:22 27,6 C 31,1 C 22,2 C 52 % 1011,1 hPa 0,0 l/m 2 min 0 min 255 W/m 3,2 km/h (1 Bft) 96,00 %
03.09.2022 18:24 27,7 C 31,1 C 22,2 C 53 % 1011,2 hPa 0,0 l/m 2 min 0 min 250 W/m 6,4 km/h (2 Bft) 95,74 %
03.09.2022 18:26 27,6 C 30,6 C 21,7 C 52 % 1011,2 hPa 0,0 l/m 2 min 0 min 242 W/m 3,2 km/h (1 Bft) 95,65 %
03.09.2022 18:28 27,6 C 30,6 C 21,7 C 52 % 1011,2 hPa 0,0 l/m 2 min 0 min 233 W/m 3,2 km/h (1 Bft) 95,74 %
03.09.2022 18:30 27,4 C 30,6 C 21,7 C 52 % 1011,2 hPa 0,0 l/m 2 min 0 min 226 W/m 6,4 km/h (2 Bft) 93,62 %
03.09.2022 18:32 27,4 C 30,0 C 21,7 C 52 % 1011,2 hPa 0,0 l/m 2 min 0 min 217 W/m 3,2 km/h (1 Bft) 93,75 %
03.09.2022 18:34 27,3 C 30,0 C 21,7 C 53 % 1011,2 hPa 0,0 l/m 2 min 0 min 210 W/m 12,9 km/h (3 Bft) 95,74 %
03.09.2022 18:36 27,3 C 30,0 C 21,7 C 52 % 1011,2 hPa 0,0 l/m 2 min 0 min 205 W/m 6,4 km/h (2 Bft) 89,13 %
03.09.2022 18:38 27,3 C 30,0 C 21,7 C 52 % 1011,2 hPa 0,0 l/m 2 min 0 min 199 W/m 3,2 km/h (1 Bft) 95,74 %
03.09.2022 18:40 27,3 C 30,0 C 22,2 C 53 % 1011,2 hPa 0,0 l/m 2 min 0 min 195 W/m 6,4 km/h (2 Bft) 97,87 %
03.09.2022 18:42 27,3 C 30,0 C 21,7 C 52 % 1011,2 hPa 0,0 l/m 2 min 0 min 186 W/m 3,2 km/h (1 Bft) 97,87 %
03.09.2022 18:44 27,3 C 30,0 C 21,7 C 53 % 1011,2 hPa 0,0 l/m 2 min 0 min 173 W/m 3,2 km/h (1 Bft) 97,87 %
03.09.2022 18:46 27,3 C 29,4 C 21,7 C 53 % 1011,2 hPa 0,0 l/m 2 min 0 min 155 W/m 3,2 km/h (1 Bft) 95,74 %
03.09.2022 18:48 27,3 C 28,3 C 21,7 C 53 % 1011,2 hPa 0,0 l/m 0 min 0 min 91 W/m 3,2 km/h (1 Bft) 100,00 %
03.09.2022 18:50 27,3 C 27,2 C 21,7 C 53 % 1011,2 hPa 0,0 l/m 0 min 0 min 58 W/m 6,4 km/h (2 Bft) 100,00 %
03.09.2022 18:52 27,2 C 26,7 C 21,1 C 53 % 1011,2 hPa 0,0 l/m 0 min 0 min 56 W/m 3,2 km/h (1 Bft) 100,00 %
03.09.2022 18:54 27,2 C 26,1 C 21,1 C 53 % 1011,2 hPa 0,0 l/m 0 min 0 min 56 W/m 6,4 km/h (2 Bft) 100,00 %
03.09.2022 18:56 27,1 C 26,1 C 21,1 C 53 % 1011,2 hPa 0,0 l/m 0 min 0 min 56 W/m 12,9 km/h (3 Bft) 100,00 %
03.09.2022 18:58 26,9 C 25,6 C 21,1 C 54 % 1011,2 hPa 0,0 l/m 0 min 0 min 54 W/m 6,4 km/h (2 Bft) 100,00 %
03.09.2022 19:00 26,8 C 25,6 C 21,1 C 53 % 1011,3 hPa 0,0 l/m 0 min 0 min 54 W/m 6,4 km/h (2 Bft) 100,00 %
03.09.2022 19:02 26,7 C 25,6 C 21,1 C 54 % 1011,3 hPa 0,0 l/m 0 min 0 min 53 W/m 6,4 km/h (2 Bft) 100,00 %
03.09.2022 19:04 26,7 C 25,6 C 21,1 C 54 % 1011,3 hPa 0,0 l/m 0 min 0 min 51 W/m 3,2 km/h (1 Bft) 97,87 %
03.09.2022 19:06 26,6 C 25,6 C 21,1 C 54 % 1011,3 hPa 0,0 l/m 0 min 0 min 51 W/m 3,2 km/h (1 Bft) 100,00 %
03.09.2022 19:08 26,5 C 25,6 C 21,1 C 54 % 1011,3 hPa 0,0 l/m 0 min 0 min 52 W/m 6,4 km/h (2 Bft) 100,00 %
03.09.2022 19:10 26,4 C 25,0 C 21,1 C 55 % 1011,3 hPa 0,0 l/m 0 min 0 min 54 W/m 6,4 km/h (2 Bft) 100,00 %
03.09.2022 19:12 26,3 C 25,0 C 21,1 C 55 % 1011,3 hPa 0,0 l/m 0 min 0 min 57 W/m 6,4 km/h (2 Bft) 100,00 %
03.09.2022 19:14 26,2 C 25,0 C 21,1 C 55 % 1011,3 hPa 0,0 l/m 0 min 0 min 57 W/m 6,4 km/h (2 Bft) 100,00 %
03.09.2022 19:16 26,1 C 25,0 C 21,1 C 56 % 1011,3 hPa 0,0 l/m 0 min 0 min 53 W/m 6,4 km/h (2 Bft) 100,00 %
03.09.2022 19:18 26,1 C 25,0 C 20,6 C 56 % 1011,3 hPa 0,0 l/m 0 min 0 min 48 W/m 6,4 km/h (2 Bft) 100,00 %
03.09.2022 19:20 25,9 C 24,4 C 20,6 C 56 % 1011,3 hPa 0,0 l/m 0 min 0 min 44 W/m 6,4 km/h (2 Bft) 100,00 %
03.09.2022 19:22 25,9 C 24,4 C 20,6 C 57 % 1011,4 hPa 0,0 l/m 0 min 0 min 40 W/m 6,4 km/h (2 Bft) 100,00 %
03.09.2022 19:24 25,8 C 24,4 C 20,6 C 57 % 1011,3 hPa 0,0 l/m 0 min 0 min 36 W/m 12,9 km/h (3 Bft) 100,00 %
03.09.2022 19:26 25,7 C 24,4 C 20,6 C 57 % 1011,3 hPa 0,0 l/m 0 min 0 min 33 W/m 12,9 km/h (3 Bft) 97,87 %
03.09.2022 19:28 25,6 C 24,4 C 20,6 C 57 % 1011,3 hPa 0,0 l/m 0 min 0 min 30 W/m 3,2 km/h (1 Bft) 100,00 %
03.09.2022 19:30 25,6 C 24,4 C 20,6 C 58 % 1011,4 hPa 0,0 l/m 0 min 0 min 30 W/m 3,2 km/h (1 Bft) 100,00 %
03.09.2022 19:32 25,5 C 23,9 C 20,0 C 58 % 1011,4 hPa 0,0 l/m 0 min 0 min 27 W/m 3,2 km/h (1 Bft) 100,00 %
03.09.2022 19:34 25,4 C 23,9 C 20,0 C 58 % 1011,4 hPa 0,0 l/m 0 min 0 min 26 W/m 6,4 km/h (2 Bft) 100,00 %
03.09.2022 19:36 25,4 C 23,9 C 20,0 C 58 % 1011,4 hPa 0,0 l/m 0 min 0 min 25 W/m 6,4 km/h (2 Bft) 100,00 %
03.09.2022 19:38 25,3 C 23,9 C 20,0 C 58 % 1011,4 hPa 0,0 l/m 0 min 0 min 24 W/m 6,4 km/h (2 Bft) 100,00 %
03.09.2022 19:40 25,3 C 23,9 C 20,0 C 59 % 1011,4 hPa 0,0 l/m 0 min 0 min 23 W/m 3,2 km/h (1 Bft) 100,00 %
03.09.2022 19:42 25,2 C 23,9 C 20,0 C 59 % 1011,4 hPa 0,0 l/m 0 min 0 min 24 W/m 6,4 km/h (2 Bft) 100,00 %
03.09.2022 19:44 25,2 C 23,9 C 20,0 C 59 % 1011,5 hPa 0,0 l/m 0 min 0 min 26 W/m 9,7 km/h (2 Bft) 100,00 %
03.09.2022 19:46 25,1 C 23,9 C 20,0 C 59 % 1011,6 hPa 0,0 l/m 0 min 0 min 28 W/m 6,4 km/h (2 Bft) 95,74 %
03.09.2022 19:48 25,1 C 23,9 C 20,0 C 60 % 1011,6 hPa 0,0 l/m 2 min 0 min 31 W/m 9,7 km/h (2 Bft) 100,00 %
03.09.2022 19:50 25,0 C 23,9 C 20,0 C 60 % 1011,6 hPa 0,0 l/m 2 min 0 min 32 W/m 12,9 km/h (3 Bft) 100,00 %
03.09.2022 19:52 24,9 C 23,3 C 20,0 C 60 % 1011,6 hPa 0,0 l/m 2 min 0 min 31 W/m 19,3 km/h (3 Bft) 100,00 %
03.09.2022 19:54 24,8 C 23,3 C 20,0 C 61 % 1011,7 hPa 0,0 l/m 2 min 0 min 29 W/m 9,7 km/h (2 Bft) 100,00 %
03.09.2022 19:56 24,8 C 23,3 C 20,0 C 61 % 1011,7 hPa 0,0 l/m 2 min 0 min 25 W/m 9,7 km/h (2 Bft) 100,00 %
03.09.2022 19:58 24,7 C 23,3 C 20,0 C 61 % 1011,8 hPa 0,0 l/m 2 min 0 min 20 W/m 12,9 km/h (3 Bft) 100,00 %
03.09.2022 20:00 24,7 C 23,3 C 20,0 C 62 % 1011,7 hPa 0,0 l/m 0 min 0 min 16 W/m 3,2 km/h (1 Bft) 100,00 %
03.09.2022 20:02 24,6 C 23,3 C 19,4 C 62 % 1011,8 hPa 0,0 l/m 0 min 0 min 10 W/m 6,4 km/h (2 Bft) 100,00 %
03.09.2022 20:04 24,6 C 23,3 C 19,4 C 62 % 1011,8 hPa 0,0 l/m 0 min 0 min 7 W/m 6,4 km/h (2 Bft) 100,00 %
03.09.2022 20:06 24,6 C 23,3 C 19,4 C 62 % 1011,8 hPa 0,0 l/m 0 min 0 min 6 W/m 9,7 km/h (2 Bft) 100,00 %
03.09.2022 20:08 24,5 C 23,3 C 19,4 C 62 % 1011,8 hPa 0,0 l/m 0 min 0 min 5 W/m 6,4 km/h (2 Bft) 100,00 %
03.09.2022 20:10 24,4 C 22,8 C 19,4 C 62 % 1011,9 hPa 0,0 l/m 0 min 0 min 5 W/m 6,4 km/h (2 Bft) 97,87 %
03.09.2022 20:12 24,4 C 22,8 C 19,4 C 63 % 1011,9 hPa 0,0 l/m 0 min 0 min 0 W/m 3,2 km/h (1 Bft) 100,00 %
03.09.2022 20:14 24,3 C 22,8 C 19,4 C 63 % 1011,9 hPa 0,0 l/m 0 min 0 min 0 W/m 12,9 km/h (3 Bft) 94,44 %
03.09.2022 20:16 24,3 C 22,8 C 18,9 C 63 % 1012,0 hPa 0,0 l/m 0 min 0 min 0 W/m 16,1 km/h (3 Bft) 97,83 %
03.09.2022 20:18 24,2 C 22,8 C 18,9 C 63 % 1012,0 hPa 0,0 l/m 0 min 0 min 0 W/m 6,4 km/h (2 Bft) 97,87 %
03.09.2022 20:20 24,1 C 22,8 C 18,9 C 64 % 1012,0 hPa 0,0 l/m 0 min 0 min 0 W/m 12,9 km/h (3 Bft) 98,31 %
03.09.2022 20:22 24,0 C 22,2 C 18,9 C 64 % 1012,1 hPa 0,0 l/m 0 min 0 min 0 W/m 6,4 km/h (2 Bft) 93,62 %
03.09.2022 20:24 23,9 C 22,2 C 18,9 C 64 % 1012,1 hPa 0,0 l/m 0 min 0 min 0 W/m 12,9 km/h (3 Bft) 94,29 %
03.09.2022 20:26 23,8 C 22,2 C 18,9 C 65 % 1012,2 hPa 0,0 l/m 0 min 0 min 0 W/m 6,4 km/h (2 Bft) 98,28 %
03.09.2022 20:28 23,8 C 22,2 C 18,9 C 65 % 1012,2 hPa 0,0 l/m 0 min 0 min 0 W/m 12,9 km/h (3 Bft) 94,29 %
03.09.2022 20:30 23,7 C 22,2 C 18,3 C 65 % 1012,2 hPa 0,0 l/m 0 min 0 min 0 W/m 12,9 km/h (3 Bft) 94,92 %
03.09.2022 20:32 23,6 C 22,2 C 18,3 C 65 % 1012,3 hPa 0,0 l/m 0 min 0 min 0 W/m 6,4 km/h (2 Bft) 94,29 %
03.09.2022 20:34 23,6 C 22,2 C 18,3 C 65 % 1012,3 hPa 0,0 l/m 0 min 0 min 0 W/m 6,4 km/h (2 Bft) 91,49 %
03.09.2022 20:36 23,5 C 22,2 C 18,3 C 66 % 1012,3 hPa 0,0 l/m 0 min 0 min 0 W/m 6,4 km/h (2 Bft) 96,55 %
03.09.2022 20:38 23,4 C 21,7 C 18,3 C 66 % 1012,4 hPa 0,0 l/m 0 min 0 min 0 W/m 3,2 km/h (1 Bft) 95,74 %
03.09.2022 20:40 23,4 C 21,7 C 18,3 C 66 % 1012,4 hPa 0,0 l/m 0 min 0 min 0 W/m 6,4 km/h (2 Bft) 88,57 %
03.09.2022 20:42 23,3 C 21,7 C 18,3 C 67 % 1012,5 hPa 0,0 l/m 0 min 0 min 0 W/m 12,9 km/h (3 Bft) 93,62 %
03.09.2022 20:44 23,2 C 21,7 C 18,3 C 67 % 1012,5 hPa 0,0 l/m 0 min 0 min 0 W/m 12,9 km/h (3 Bft) 93,62 %
03.09.2022 20:46 23,1 C 21,7 C 18,3 C 68 % 1012,5 hPa 0,0 l/m 0 min 0 min 0 W/m 12,9 km/h (3 Bft) 93,62 %
03.09.2022 20:48 23,1 C 21,7 C 18,3 C 68 % 1012,5 hPa 0,0 l/m 0 min 0 min 0 W/m 6,4 km/h (2 Bft) 96,30 %
03.09.2022 20:50 23,0 C 21,7 C 18,3 C 68 % 1012,5 hPa 0,0 l/m 0 min 0 min 0 W/m 6,4 km/h (2 Bft) 93,62 %
03.09.2022 20:52 22,9 C 21,7 C 18,3 C 68 % 1012,6 hPa 0,0 l/m 0 min 0 min 0 W/m 12,9 km/h (3 Bft) 95,74 %
03.09.2022 20:54 22,9 C 21,7 C 18,3 C 68 % 1012,6 hPa 0,0 l/m 0 min 0 min 0 W/m 6,4 km/h (2 Bft) 95,74 %
03.09.2022 20:56 22,8 C 21,7 C 17,8 C 69 % 1012,6 hPa 0,0 l/m 0 min 0 min 0 W/m 6,4 km/h (2 Bft) 95,74 %
03.09.2022 20:58 22,8 C 21,1 C 17,8 C 69 % 1012,6 hPa 0,0 l/m 0 min 0 min 0 W/m 3,2 km/h (1 Bft) 93,62 %
03.09.2022 21:00 22,7 C 21,1 C 17,8 C 69 % 1012,6 hPa 0,0 l/m 0 min 0 min 0 W/m 6,4 km/h (2 Bft) 95,65 %
03.09.2022 21:04 22,7 C 21,1 C 17,8 C 70 % 1012,7 hPa 0,0 l/m 0 min 0 min 0 W/m 3,2 km/h (1 Bft) 86,67 %
03.09.2022 21:06 22,6 C 21,1 C 17,8 C 70 % 1012,7 hPa 0,0 l/m 0 min 0 min 0 W/m 12,9 km/h (3 Bft) 95,74 %
03.09.2022 21:08 22,6 C 21,1 C 17,8 C 70 % 1012,7 hPa 0,0 l/m 0 min 0 min 0 W/m 6,4 km/h (2 Bft) 95,74 %
03.09.2022 21:10 22,5 C 21,1 C 17,8 C 71 % 1012,7 hPa 0,0 l/m 0 min 0 min 0 W/m 6,4 km/h (2 Bft) 97,87 %
03.09.2022 21:12 22,4 C 21,1 C 17,8 C 71 % 1012,7 hPa 0,0 l/m 0 min 0 min 0 W/m 6,4 km/h (2 Bft) 95,74 %
03.09.2022 21:14 22,4 C 21,1 C 17,8 C 71 % 1012,7 hPa 0,0 l/m 0 min 0 min 0 W/m 6,4 km/h (2 Bft) 97,87 %
03.09.2022 21:16 22,3 C 21,1 C 17,8 C 71 % 1012,8 hPa 0,0 l/m 0 min 0 min 0 W/m 6,4 km/h (2 Bft) 97,83 %
03.09.2022 21:18 22,3 C 21,1 C 17,8 C 71 % 1012,8 hPa 0,0 l/m 0 min 0 min 0 W/m 6,4 km/h (2 Bft) 97,87 %
03.09.2022 21:20 22,2 C 21,1 C 17,8 C 72 % 1012,8 hPa 0,0 l/m 0 min 0 min 0 W/m 9,7 km/h (2 Bft) 97,87 %
03.09.2022 21:22 22,2 C 21,1 C 17,8 C 72 % 1012,9 hPa 0,0 l/m 0 min 0 min 0 W/m 6,4 km/h (2 Bft) 97,87 %
03.09.2022 21:24 22,1 C 20,6 C 17,8 C 72 % 1012,9 hPa 0,0 l/m 0 min 0 min 0 W/m 6,4 km/h (2 Bft) 95,74 %
03.09.2022 21:26 22,1 C 20,6 C 17,2 C 72 % 1013,0 hPa 0,0 l/m 0 min 0 min 0 W/m 9,7 km/h (2 Bft) 95,74 %
03.09.2022 21:28 22,0 C 20,6 C 17,2 C 72 % 1013,0 hPa 0,0 l/m 0 min 0 min 0 W/m 6,4 km/h (2 Bft) 100,00 %
03.09.2022 21:30 21,9 C 20,6 C 17,2 C 72 % 1013,0 hPa 0,0 l/m 0 min 0 min 0 W/m 16,1 km/h (3 Bft) 100,00 %
03.09.2022 21:32 21,9 C 20,6 C 17,2 C 72 % 1013,0 hPa 0,0 l/m 0 min 0 min 0 W/m 9,7 km/h (2 Bft) 100,00 %
03.09.2022 21:34 21,8 C 20,6 C 17,2 C 72 % 1013,1 hPa 0,0 l/m 0 min 0 min 0 W/m 6,4 km/h (2 Bft) 100,00 %
03.09.2022 21:36 21,8 C 20,6 C 17,2 C 73 % 1013,1 hPa 0,0 l/m 0 min 0 min 0 W/m 6,4 km/h (2 Bft) 100,00 %
03.09.2022 21:38 21,8 C 20,6 C 17,2 C 73 % 1013,1 hPa 0,0 l/m 0 min 0 min 0 W/m 6,4 km/h (2 Bft) 100,00 %
03.09.2022 21:40 21,7 C 20,6 C 17,2 C 73 % 1013,1 hPa 0,0 l/m 0 min 0 min 0 W/m 6,4 km/h (2 Bft) 100,00 %
03.09.2022 21:42 21,7 C 20,6 C 17,2 C 73 % 1013,2 hPa 0,0 l/m 0 min 0 min 0 W/m 3,2 km/h (1 Bft) 100,00 %
03.09.2022 21:44 21,7 C 20,6 C 17,2 C 73 % 1013,2 hPa 0,0 l/m 0 min 0 min 0 W/m 6,4 km/h (2 Bft) 100,00 %
03.09.2022 21:46 21,7 C 20,0 C 17,2 C 74 % 1013,2 hPa 0,0 l/m 0 min 0 min 0 W/m 6,4 km/h (2 Bft) 100,00 %
03.09.2022 21:48 21,6 C 20,0 C 16,7 C 74 % 1013,2 hPa 0,0 l/m 0 min 0 min 0 W/m 6,4 km/h (2 Bft) 100,00 %
03.09.2022 21:50 21,6 C 20,0 C 16,7 C 74 % 1013,2 hPa 0,0 l/m 0 min 0 min 0 W/m 6,4 km/h (2 Bft) 100,00 %
03.09.2022 21:52 21,5 C 20,0 C 16,7 C 75 % 1013,3 hPa 0,0 l/m 0 min 0 min 0 W/m 6,4 km/h (2 Bft) 97,83 %
03.09.2022 21:54 21,4 C 20,0 C 16,7 C 76 % 1013,2 hPa 0,0 l/m 0 min 0 min 0 W/m 3,2 km/h (1 Bft) 100,00 %
03.09.2022 21:56 21,4 C 20,0 C 16,7 C 76 % 1013,2 hPa 0,0 l/m 0 min 0 min 0 W/m 6,4 km/h (2 Bft) 97,87 %
03.09.2022 21:58 21,3 C 20,0 C 16,7 C 76 % 1013,2 hPa 0,0 l/m 0 min 0 min 0 W/m 6,4 km/h (2 Bft) 100,00 %
03.09.2022 22:00 21,3 C 20,0 C 16,7 C 77 % 1013,2 hPa 0,0 l/m 0 min 0 min 0 W/m 6,4 km/h (2 Bft) 100,00 %
03.09.2022 22:02 21,2 C 20,0 C 16,7 C 77 % 1013,2 hPa 0,0 l/m 0 min 0 min 0 W/m 6,4 km/h (2 Bft) 95,74 %
03.09.2022 22:04 21,2 C 19,4 C 16,7 C 77 % 1013,2 hPa 0,0 l/m 0 min 0 min 0 W/m 6,4 km/h (2 Bft) 97,83 %
03.09.2022 22:06 21,1 C 19,4 C 16,7 C 77 % 1013,2 hPa 0,0 l/m 0 min 0 min 0 W/m 6,4 km/h (2 Bft) 100,00 %
03.09.2022 22:08 21,1 C 19,4 C 16,1 C 78 % 1013,3 hPa 0,0 l/m 0 min 0 min 0 W/m 9,7 km/h (2 Bft) 100,00 %
03.09.2022 22:10 21,1 C 19,4 C 16,1 C 78 % 1013,3 hPa 0,0 l/m 0 min 0 min 0 W/m 6,4 km/h (2 Bft) 100,00 %
03.09.2022 22:12 21,0 C 19,4 C 16,1 C 78 % 1013,3 hPa 0,0 l/m 0 min 0 min 0 W/m 6,4 km/h (2 Bft) 93,62 %
03.09.2022 22:14 20,9 C 19,4 C 16,1 C 79 % 1013,3 hPa 0,0 l/m 0 min 0 min 0 W/m 16,1 km/h (3 Bft) 97,87 %
03.09.2022 22:16 20,9 C 19,4 C 16,1 C 79 % 1013,4 hPa 0,0 l/m 0 min 0 min 0 W/m 6,4 km/h (2 Bft) 97,83 %
03.09.2022 22:18 20,8 C 19,4 C 16,1 C 79 % 1013,4 hPa 0,0 l/m 0 min 0 min 0 W/m 3,2 km/h (1 Bft) 97,87 %
03.09.2022 22:20 20,8 C 19,4 C 16,1 C 79 % 1013,5 hPa 0,0 l/m 0 min 0 min 0 W/m 6,4 km/h (2 Bft) 97,87 %
03.09.2022 22:22 20,7 C 19,4 C 16,1 C 80 % 1013,4 hPa 0,0 l/m 0 min 0 min 0 W/m 9,7 km/h (2 Bft) 95,74 %
03.09.2022 22:24 20,7 C 19,4 C 16,1 C 80 % 1013,4 hPa 0,0 l/m 0 min 0 min 0 W/m 3,2 km/h (1 Bft) 97,87 %
03.09.2022 22:26 20,6 C 19,4 C 16,1 C 80 % 1013,5 hPa 0,0 l/m 0 min 0 min 0 W/m 6,4 km/h (2 Bft) 97,87 %
03.09.2022 22:28 20,6 C 18,9 C 16,1 C 80 % 1013,5 hPa 0,0 l/m 0 min 0 min 0 W/m 6,4 km/h (2 Bft) 95,65 %
03.09.2022 22:30 20,5 C 18,9 C 16,1 C 80 % 1013,5 hPa 0,0 l/m 0 min 0 min 0 W/m 9,7 km/h (2 Bft) 97,87 %
03.09.2022 22:32 20,4 C 18,9 C 16,1 C 81 % 1013,5 hPa 0,0 l/m 0 min 0 min 0 W/m 6,4 km/h (2 Bft) 98,11 %
03.09.2022 22:34 20,4 C 18,9 C 16,1 C 81 % 1013,5 hPa 0,0 l/m 0 min 0 min 0 W/m 3,2 km/h (1 Bft) 97,87 %
03.09.2022 22:36 20,3 C 18,9 C 16,1 C 81 % 1013,5 hPa 0,0 l/m 0 min 0 min 0 W/m 6,4 km/h (2 Bft) 97,87 %
03.09.2022 22:38 20,3 C 18,9 C 15,6 C 81 % 1013,5 hPa 0,0 l/m 0 min 0 min 0 W/m 3,2 km/h (1 Bft) 97,87 %
03.09.2022 22:40 20,2 C 18,9 C 15,6 C 81 % 1013,6 hPa 0,0 l/m 0 min 0 min 0 W/m 3,2 km/h (1 Bft) 97,83 %
03.09.2022 22:42 20,2 C 18,9 C 15,6 C 81 % 1013,6 hPa 0,0 l/m 0 min 0 min 0 W/m 3,2 km/h (1 Bft) 97,87 %
03.09.2022 22:44 20,2 C 18,9 C 15,6 C 81 % 1013,6 hPa 0,0 l/m 0 min 0 min 0 W/m 3,2 km/h (1 Bft) 100,00 %
03.09.2022 22:46 20,1 C 18,9 C 15,6 C 82 % 1013,6 hPa 0,0 l/m 0 min 0 min 0 W/m 6,4 km/h (2 Bft) 100,00 %
03.09.2022 22:48 20,1 C 18,9 C 15,6 C 82 % 1013,6 hPa 0,0 l/m 0 min 0 min 0 W/m 3,2 km/h (1 Bft) 100,00 %
03.09.2022 22:50 20,0 C 18,9 C 15,6 C 82 % 1013,6 hPa 0,0 l/m 0 min 0 min 0 W/m 3,2 km/h (1 Bft) 100,00 %
03.09.2022 22:52 20,0 C 18,9 C 15,6 C 82 % 1013,6 hPa 0,0 l/m 0 min 0 min 0 W/m 3,2 km/h (1 Bft) 100,00 %
03.09.2022 22:54 19,9 C 18,9 C 15,6 C 82 % 1013,7 hPa 0,0 l/m 0 min 0 min 0 W/m 3,2 km/h (1 Bft) 97,87 %
03.09.2022 22:56 19,9 C 18,9 C 15,6 C 82 % 1013,7 hPa 0,0 l/m 0 min 0 min 0 W/m 3,2 km/h (1 Bft) 100,00 %
03.09.2022 22:58 19,9 C 18,9 C 15,6 C 82 % 1013,7 hPa 0,0 l/m 0 min 0 min 0 W/m 3,2 km/h (1 Bft) 97,87 %
03.09.2022 23:00 19,8 C 18,3 C 15,6 C 82 % 1013,7 hPa 0,0 l/m 0 min 0 min 0 W/m 6,4 km/h (2 Bft) 100,00 %
03.09.2022 23:02 19,8 C 18,3 C 15,6 C 82 % 1013,7 hPa 0,0 l/m 0 min 0 min 0 W/m 3,2 km/h (1 Bft) 100,00 %
03.09.2022 23:04 19,8 C 18,3 C 15,6 C 83 % 1013,7 hPa 0,0 l/m 0 min 0 min 0 W/m 3,2 km/h (1 Bft) 100,00 %
03.09.2022 23:06 19,7 C 18,3 C 15,6 C 83 % 1013,7 hPa 0,0 l/m 0 min 0 min 0 W/m 6,4 km/h (2 Bft) 100,00 %
03.09.2022 23:08 19,7 C 18,3 C 15,0 C 83 % 1013,7 hPa 0,0 l/m 0 min 0 min 0 W/m 6,4 km/h (2 Bft) 100,00 %
03.09.2022 23:10 19,7 C 18,3 C 15,6 C 83 % 1013,7 hPa 0,0 l/m 0 min 0 min 0 W/m 3,2 km/h (1 Bft) 97,87 %
03.09.2022 23:12 19,7 C 18,3 C 15,0 C 83 % 1013,8 hPa 0,0 l/m 0 min 0 min 0 W/m 3,2 km/h (1 Bft) 97,87 %
03.09.2022 23:14 19,6 C 18,3 C 15,0 C 83 % 1013,9 hPa 0,0 l/m 0 min 0 min 0 W/m 0,0 km/h (0 Bft) 95,74 %
03.09.2022 23:16 19,6 C 18,3 C 15,0 C 83 % 1013,8 hPa 0,0 l/m 0 min 0 min 0 W/m 3,2 km/h (1 Bft) 97,83 %
03.09.2022 23:18 19,6 C 18,3 C 15,0 C 83 % 1013,8 hPa 0,0 l/m 0 min 0 min 0 W/m 3,2 km/h (1 Bft) 95,74 %
03.09.2022 23:20 19,5 C 18,3 C 15,0 C 83 % 1013,8 hPa 0,0 l/m 0 min 0 min 0 W/m 3,2 km/h (1 Bft) 97,87 %
03.09.2022 23:22 19,5 C 18,3 C 15,0 C 83 % 1013,8 hPa 0,0 l/m 0 min 0 min 0 W/m 3,2 km/h (1 Bft) 95,74 %
03.09.2022 23:24 19,4 C 18,3 C 15,0 C 84 % 1013,8 hPa 0,0 l/m 0 min 0 min 0 W/m 3,2 km/h (1 Bft) 91,49 %
03.09.2022 23:26 19,4 C 18,3 C 15,0 C 84 % 1013,8 hPa 0,0 l/m 0 min 0 min 0 W/m 6,4 km/h (2 Bft) 95,74 %
03.09.2022 23:28 19,3 C 18,3 C 15,0 C 84 % 1013,8 hPa 0,0 l/m 0 min 0 min 0 W/m 3,2 km/h (1 Bft) 95,65 %
03.09.2022 23:30 19,3 C 17,8 C 15,0 C 84 % 1013,8 hPa 0,0 l/m 0 min 0 min 0 W/m 3,2 km/h (1 Bft) 95,74 %
03.09.2022 23:32 19,3 C 17,8 C 15,0 C 84 % 1013,9 hPa 0,0 l/m 0 min 0 min 0 W/m 3,2 km/h (1 Bft) 95,74 %
03.09.2022 23:34 19,2 C 17,8 C 15,0 C 84 % 1013,9 hPa 0,0 l/m 0 min 0 min 0 W/m 3,2 km/h (1 Bft) 95,74 %
03.09.2022 23:36 19,2 C 17,8 C 15,0 C 84 % 1013,9 hPa 0,0 l/m 0 min 0 min 0 W/m 3,2 km/h (1 Bft) 95,74 %
03.09.2022 23:38 19,2 C 17,8 C 15,0 C 84 % 1013,9 hPa 0,0 l/m 0 min 0 min 0 W/m 3,2 km/h (1 Bft) 95,74 %
03.09.2022 23:40 19,2 C 17,8 C 15,0 C 84 % 1013,9 hPa 0,0 l/m 0 min 0 min 0 W/m 3,2 km/h (1 Bft) 95,65 %
03.09.2022 23:42 19,1 C 17,8 C 15,0 C 84 % 1013,9 hPa 0,0 l/m 0 min 0 min 0 W/m 3,2 km/h (1 Bft) 93,62 %
03.09.2022 23:44 19,1 C 17,8 C 15,0 C 85 % 1013,9 hPa 0,0 l/m 0 min 0 min 0 W/m 3,2 km/h (1 Bft) 93,62 %
03.09.2022 23:46 19,1 C 17,8 C 15,0 C 85 % 1013,9 hPa 0,0 l/m 0 min 0 min 0 W/m 3,2 km/h (1 Bft) 95,74 %
03.09.2022 23:48 19,1 C 17,8 C 15,0 C 85 % 1014,0 hPa 0,0 l/m 0 min 0 min 0 W/m 3,2 km/h (1 Bft) 95,74 %
03.09.2022 23:50 19,0 C 17,8 C 15,0 C 85 % 1013,9 hPa 0,0 l/m 0 min 0 min 0 W/m 3,2 km/h (1 Bft) 95,74 %
03.09.2022 23:52 19,0 C 17,8 C 15,0 C 85 % 1013,9 hPa 0,0 l/m 0 min 0 min 0 W/m 3,2 km/h (1 Bft) 95,65 %
03.09.2022 23:54 19,0 C 17,8 C 15,0 C 85 % 1013,9 hPa 0,0 l/m 0 min 0 min 0 W/m 3,2 km/h (1 Bft) 95,74 %
03.09.2022 23:56 18,9 C 17,8 C 15,0 C 85 % 1014,0 hPa 0,0 l/m 0 min 0 min 0 W/m 6,4 km/h (2 Bft) 93,62 %
03.09.2022 23:58 18,9 C 17,8 C 15,0 C 85 % 1014,0 hPa 0,0 l/m 0 min 0 min 0 W/m 3,2 km/h (1 Bft) 95,74 %
_ Min-Zeit 07:28 06:36 06:24 18:02 16:04 - - - - 00:00 21:04
Minimum _ 14,3 C 13,3 C 10,6 C 51 % 1011,1 hPa - - - - 0,0 km/h (0 Bft) 86,67 %
_ Max-Zeit 16:48 14:10 12:08 23:44 23:48 00:00 16:20 00:00 13:38 09:46 00:02
Maximum _ 27,7 C 31,7 C 23,9 C 85 % 1014,0 hPa 0,0 l/m 5 min 0 min 774 W/m 22,5 km/h
S (4 Bft)
100,00 %
Durchschnitt _ 20,9 C 21,0 C 16,4 C 63 % 1011,8 hPa #0,0 l/m #6:44 h #0 min. 320 W/m 7,0 km/h (2 Bft) 97,49 %
© 2022 W. Hausmann